M I D A S
Marine Information and Data Acquisition System
Tripno 1715 of the Zeeleeuw from 2009-06-24 06:47:07 to 2009-06-24 15:11:18
Back to CruiseResearch ActivitiesStationsMapUnderway DataData graphs

EquipmentUnitsComment
TimeDGPSUTC
LatitudeDGPSDM.mWGS84
LongitudeDGPSDM.mWGS84
TemperatureSBE03/SBE38deg celciusITS90
ConductivitySBE21S/mITS90
SalinitySBE21 Practical Salinity Units
ChlorophylAChelsea fluorimeterg/lCalibrated in Aceton
Missing or incorrect values are displayed as -999
Sea surface data collected by the RV Zeeleeuw from 2009-06-24 06:44:21 to 2009-06-24 15:18:51
                                                                                    Next 1000 lines
Time Latitude Longitude Temperature Conductivity Salinity ChlorophylA
2009-06-24 06:44:31 51°13.661 2°55.956 21.3012 0.067112 0.359228 1.506764
2009-06-24 06:44:35 51°13.662 2°55.954 21.2623 0.067112 0.359228 1.506764
2009-06-24 06:44:40 51°13.663 2°55.95 21.2852 0.067112 0.359228 1.506764
2009-06-24 06:44:46 51°13.664 2°55.946 21.325 0.067112 0.359228 1.506764
2009-06-24 06:44:50 51°13.666 2°55.942 21.342 0.067112 0.359228 1.506764
2009-06-24 06:44:56 51°13.668 2°55.936 21.3538 0.067112 0.359228 1.506764
2009-06-24 06:45:02 51°13.671 2°55.929 21.3653 0.067112 0.359234 1.506764
2009-06-24 06:45:07 51°13.673 2°55.923 21.3541 0.067112 0.359234 1.506764
2009-06-24 06:45:12 51°13.675 2°55.917 21.3809 0.067112 0.359228 1.506764
2009-06-24 06:45:18 51°13.678 2°55.91 21.3582 0.067112 0.359228 1.506764
2009-06-24 06:45:22 51°13.679 2°55.905 21.3676 0.067112 0.359228 1.506764
2009-06-24 06:45:27 51°13.682 2°55.9 21.3431 0.067112 0.359234 1.506764
2009-06-24 06:45:32 51°13.683 2°55.894 21.3403 0.067112 0.359234 1.506764
2009-06-24 06:45:38 51°13.685 2°55.887 21.3428 0.067112 0.35924 1.506764
2009-06-24 06:45:42 51°13.686 2°55.882 21.3286 0.067112 0.35924 1.506764
2009-06-24 06:45:47 51°13.688 2°55.876 21.2733 0.067112 0.35924 1.506764
2009-06-24 06:45:52 51°13.689 2°55.868 21.3662 0.067112 0.359247 1.47194
2009-06-24 06:45:57 51°13.69 2°55.861 21.3502 0.067112 0.359247 1.506764
2009-06-24 06:46:02 51°13.691 2°55.853 21.3563 0.067112 0.359247 1.506764
2009-06-24 06:46:07 51°13.692 2°55.844 21.3643 0.067112 0.359247 1.506764
2009-06-24 06:46:12 51°13.693 2°55.835 21.3642 0.067112 0.359247 1.506764
2009-06-24 06:46:17 51°13.694 2°55.826 21.3604 0.067112 0.359247 1.506764
2009-06-24 06:46:22 51°13.694 2°55.816 21.3826 0.067112 0.359247 1.506764
2009-06-24 06:46:27 51°13.694 2°55.807 21.3894 0.067112 0.359247 1.506764
2009-06-24 06:46:32 51°13.695 2°55.798 21.3924 0.067112 0.359247 1.506764
2009-06-24 06:46:37 51°13.695 2°55.79 21.392 0.067112 0.359247 1.506764
2009-06-24 06:46:42 51°13.694 2°55.782 21.3829 0.067112 0.359247 1.506764
2009-06-24 06:46:47 51°13.694 2°55.775 21.3663 0.067112 0.359247 1.506764
2009-06-24 06:46:52 51°13.694 2°55.768 21.3608 0.067112 0.359253 1.506764
2009-06-24 06:46:57 51°13.694 2°55.762 21.3659 0.067112 0.359253 1.506764
2009-06-24 06:47:02 51°13.694 2°55.756 21.3676 0.067112 0.359253 1.506764
2009-06-24 06:47:07 51°13.694 2°55.752 21.3691 0.067112 0.359259 1.506764
2009-06-24 06:47:11 51°13.693 2°55.749 21.3786 0.067112 0.359265 1.506764
2009-06-24 06:47:16 51°13.693 2°55.746 21.3829 0.067112 0.359265 1.506764
2009-06-24 06:47:21 51°13.694 2°55.743 21.3803 0.067112 0.359259 1.506764
2009-06-24 06:47:26 51°13.694 2°55.742 21.3816 0.067112 0.359265 1.506764
2009-06-24 06:47:31 51°13.694 2°55.741 21.4019 0.067112 0.359259 1.506764
2009-06-24 06:47:36 51°13.695 2°55.742 21.4147 0.067112 0.359259 1.506764
2009-06-24 06:47:41 51°13.697 2°55.743 21.423 0.067112 0.359265 1.506764
2009-06-24 06:47:46 51°13.699 2°55.744 21.4286 0.067112 0.359265 1.506764
2009-06-24 06:47:50 51°13.701 2°55.746 21.4338 0.067112 0.359265 1.506764
2009-06-24 06:47:55 51°13.705 2°55.748 21.4318 0.067112 0.359271 1.506764
2009-06-24 06:48:00 51°13.71 2°55.749 21.4023 0.067112 0.359277 1.506764
2009-06-24 06:48:05 51°13.714 2°55.749 21.3608 0.067112 0.359284 1.506764
2009-06-24 06:48:10 51°13.718 2°55.749 21.3612 0.067112 0.35929 1.506764
2009-06-24 06:48:14 51°13.721 2°55.748 21.3562 0.067112 0.35929 1.506764
2009-06-24 06:48:19 51°13.725 2°55.748 21.3821 0.067112 0.359284 1.506764
2009-06-24 06:48:24 51°13.729 2°55.746 21.3946 0.067112 0.359284 1.506764
2009-06-24 06:48:29 51°13.733 2°55.744 21.4105 0.067112 0.359284 1.506764
2009-06-24 06:48:34 51°13.737 2°55.741 21.4154 0.067112 0.359284 1.506764
2009-06-24 06:48:39 51°13.742 2°55.738 21.4113 0.067112 0.359284 1.506764
2009-06-24 06:48:43 51°13.745 2°55.734 21.3683 0.067112 0.359284 1.506764
2009-06-24 06:48:49 51°13.749 2°55.728 21.3754 0.067112 0.359284 1.506764
2009-06-24 06:48:54 51°13.753 2°55.724 21.3418 0.067112 0.359277 1.506764
2009-06-24 06:48:59 51°13.757 2°55.718 21.329 0.067112 0.359277 1.506764
2009-06-24 06:49:03 51°13.76 2°55.714 21.3319 0.067112 0.359277 1.506764
2009-06-24 06:49:09 51°13.764 2°55.707 21.329 0.067112 0.359271 1.506764
2009-06-24 06:49:14 51°13.768 2°55.701 21.3252 0.067112 0.359271 1.506764
2009-06-24 06:49:19 51°13.772 2°55.695 21.3269 0.067112 0.359271 1.506764
2009-06-24 06:49:23 51°13.775 2°55.691 21.3286 0.067112 0.359271 1.506764
2009-06-24 06:49:29 51°13.781 2°55.684 21.331 0.067112 0.359271 1.506764
2009-06-24 06:49:34 51°13.785 2°55.679 21.3356 0.067112 0.359271 1.506764
2009-06-24 06:49:39 51°13.79 2°55.674 21.3404 0.067112 0.359277 1.506764
2009-06-24 06:49:43 51°13.793 2°55.67 21.3443 0.067112 0.359277 1.506764
2009-06-24 06:49:49 51°13.799 2°55.664 21.3462 0.067112 0.359277 1.506764
2009-06-24 06:49:54 51°13.805 2°55.659 21.3469 0.067112 0.359284 1.506764
2009-06-24 06:49:59 51°13.81 2°55.654 21.3475 0.067112 0.35929 1.506764
2009-06-24 06:50:03 51°13.815 2°55.65 21.3392 0.067112 0.35929 1.506764
2009-06-24 06:50:09 51°13.822 2°55.645 21.3408 0.067112 0.35929 1.506764
2009-06-24 06:50:14 51°13.828 2°55.641 21.3053 0.067112 0.35929 1.506764
2009-06-24 06:50:19 51°13.834 2°55.639 21.2748 0.067112 0.35929 1.506764
2009-06-24 06:50:23 51°13.839 2°55.637 21.2981 0.067112 0.359296 1.506764
2009-06-24 06:50:29 51°13.847 2°55.636 21.2473 0.067112 0.359296 1.506764
2009-06-24 06:50:34 51°13.852 2°55.636 21.2539 0.067112 0.359302 1.506764
2009-06-24 06:50:39 51°13.858 2°55.637 21.2876 0.067112 0.359308 1.506764
2009-06-24 06:50:44 51°13.863 2°55.638 21.304 0.067112 0.359308 1.506764
2009-06-24 06:50:49 51°13.869 2°55.64 21.3266 0.067112 0.359314 1.506764
2009-06-24 06:50:54 51°13.874 2°55.643 21.368 0.067112 0.359321 1.506764
2009-06-24 06:50:58 51°13.878 2°55.645 21.3777 0.067112 0.359321 1.506764
2009-06-24 06:51:04 51°13.883 2°55.648 21.3799 0.067112 0.359321 1.506764
2009-06-24 06:51:08 51°13.887 2°55.651 21.3773 0.067112 0.359327 1.506764
2009-06-24 06:51:14 51°13.892 2°55.654 21.3771 0.067112 0.359327 1.506764
2009-06-24 06:51:19 51°13.896 2°55.656 21.3976 0.067112 0.359327 1.506764
2009-06-24 06:51:23 51°13.899 2°55.658 21.3936 0.067112 0.359321 1.506764
2009-06-24 06:51:29 51°13.905 2°55.66 21.3893 0.067112 0.359327 1.506764
2009-06-24 06:51:34 51°13.909 2°55.661 21.3879 0.067112 0.359327 1.506764
2009-06-24 06:51:39 51°13.913 2°55.662 21.3858 0.067112 0.359327 1.506764
2009-06-24 06:51:43 51°13.915 2°55.662 21.3798 0.067112 0.359327 1.506764
2009-06-24 06:51:49 51°13.92 2°55.663 21.3827 0.067112 0.359333 1.506764
2009-06-24 06:51:54 51°13.923 2°55.663 21.3834 0.067112 0.359339 1.506764
2009-06-24 06:51:59 51°13.926 2°55.663 21.3844 0.067112 0.359339 1.506764
2009-06-24 06:52:03 51°13.928 2°55.663 21.3848 0.067112 0.359345 1.506764
2009-06-24 06:52:09 51°13.931 2°55.663 21.3851 0.067112 0.359345 1.506764
2009-06-24 06:52:14 51°13.934 2°55.662 21.384 0.067112 0.359345 1.506764
2009-06-24 06:52:19 51°13.936 2°55.662 21.39 0.067112 0.359345 1.506764
2009-06-24 06:52:23 51°13.937 2°55.662 21.3896 0.067112 0.359345 1.506764
2009-06-24 06:52:29 51°13.94 2°55.661 21.3921 0.067112 0.359345 1.506764
2009-06-24 06:52:34 51°13.941 2°55.66 21.3881 0.067112 0.359345 1.506764
2009-06-24 06:52:39 51°13.943 2°55.659 21.3857 0.067112 0.359345 1.506764
2009-06-24 06:52:43 51°13.944 2°55.658 21.3831 0.067112 0.359345 1.506764
2009-06-24 06:52:49 51°13.946 2°55.657 21.3822 0.067112 0.359339 1.506764
2009-06-24 06:52:54 51°13.948 2°55.656 21.3821 0.067112 0.359345 1.506764
2009-06-24 06:52:59 51°13.949 2°55.654 21.3808 0.067112 0.359339 1.506764
2009-06-24 06:53:04 51°13.95 2°55.653 21.3817 0.067112 0.359345 1.506764
2009-06-24 06:53:09 51°13.952 2°55.652 21.3821 0.067112 0.359345 1.506764
2009-06-24 06:53:14 51°13.953 2°55.651 21.3775 0.067112 0.359345 1.506764
2009-06-24 06:53:19 51°13.954 2°55.65 21.3776 0.067112 0.359345 1.506764
2009-06-24 06:53:24 51°13.956 2°55.649 21.3812 0.067112 0.359345 1.506764
2009-06-24 06:53:29 51°13.957 2°55.648 21.3821 0.067112 0.359345 1.506764
2009-06-24 06:53:34 51°13.958 2°55.647 21.3824 0.067112 0.359352 1.506764
2009-06-24 06:53:39 51°13.959 2°55.646 21.3838 0.067112 0.359352 1.506764
2009-06-24 06:53:43 51°13.96 2°55.645 21.3851 0.067112 0.359352 1.506764
2009-06-24 06:53:49 51°13.961 2°55.644 21.3846 0.067112 0.359352 1.506764
2009-06-24 06:53:54 51°13.962 2°55.643 21.3841 0.067112 0.359352 1.506764
2009-06-24 06:53:59 51°13.963 2°55.642 21.3856 0.067112 0.359352 1.506764
2009-06-24 06:54:03 51°13.964 2°55.641 21.3863 0.067112 0.359358 1.506764
2009-06-24 06:54:09 51°13.965 2°55.64 21.3873 0.067112 0.359352 1.506764
2009-06-24 06:54:14 51°13.966 2°55.639 21.3869 0.067112 0.359352 1.506764
2009-06-24 06:54:19 51°13.966 2°55.638 21.3857 0.067112 0.359358 1.506764
2009-06-24 06:54:23 51°13.967 2°55.637 21.3858 0.067112 0.359358 1.506764
2009-06-24 06:54:29 51°13.967 2°55.637 21.3912 0.067112 0.359358 1.506764
2009-06-24 06:54:34 51°13.967 2°55.637 21.3798 0.067112 0.359358 1.506764
2009-06-24 06:54:39 51°13.967 2°55.636 21.3333 0.067112 0.359358 1.506764
2009-06-24 06:54:43 51°13.966 2°55.637 21.411 0.067112 0.359358 1.506764
2009-06-24 06:54:49 51°13.965 2°55.637 21.4044 0.067112 0.359358 1.506764
2009-06-24 06:54:54 51°13.965 2°55.637 21.4073 0.067112 0.359358 1.506764
2009-06-24 06:54:59 51°13.964 2°55.637 21.4059 0.067112 0.359364 1.506764
2009-06-24 06:55:04 51°13.963 2°55.637 21.4035 0.067112 0.359364 1.506764
2009-06-24 06:55:09 51°13.963 2°55.637 21.399 0.067112 0.359364 1.506764
2009-06-24 06:55:14 51°13.962 2°55.637 21.3977 0.067112 0.359364 1.506764
2009-06-24 06:55:19 51°13.962 2°55.638 21.3962 0.067112 0.359364 1.506764
2009-06-24 06:55:23 51°13.961 2°55.638 21.399 0.067112 0.35937 1.506764
2009-06-24 06:55:29 51°13.961 2°55.638 21.4002 0.067112 0.35937 1.47194
2009-06-24 06:55:34 51°13.96 2°55.638 21.402 0.067112 0.359376 1.506764
2009-06-24 06:55:39 51°13.96 2°55.638 21.4022 0.067112 0.359376 1.506764
2009-06-24 06:55:43 51°13.959 2°55.638 21.4034 0.067112 0.359376 1.506764
2009-06-24 06:55:49 51°13.959 2°55.638 21.4029 0.067112 0.359376 1.506764
2009-06-24 06:55:54 51°13.958 2°55.638 21.4035 0.067112 0.359376 1.506764
2009-06-24 06:55:59 51°13.958 2°55.638 21.4024 0.067112 0.359382 1.506764
2009-06-24 06:56:03 51°13.957 2°55.638 21.4035 0.067112 0.359382 1.506764
2009-06-24 06:56:09 51°13.957 2°55.638 21.4045 0.067112 0.359382 1.506764
2009-06-24 06:56:14 51°13.956 2°55.638 21.4059 0.067112 0.359382 1.506764
2009-06-24 06:56:19 51°13.956 2°55.638 21.4069 0.067112 0.359382 1.506764
2009-06-24 06:56:23 51°13.955 2°55.638 21.4081 0.067112 0.359382 1.506764
2009-06-24 06:56:29 51°13.955 2°55.638 21.4081 0.067112 0.359389 1.47194
2009-06-24 06:56:34 51°13.954 2°55.638 21.4079 0.067112 0.359389 1.506764
2009-06-24 06:56:38 51°13.954 2°55.638 21.4071 0.067112 0.359389 1.506764
2009-06-24 06:56:44 51°13.954 2°55.638 21.407 0.067112 0.359389 1.506764
2009-06-24 06:56:48 51°13.953 2°55.638 21.4068 0.067112 0.359389 1.506764
2009-06-24 06:56:54 51°13.953 2°55.638 21.4068 0.067112 0.359395 1.506764
2009-06-24 06:56:59 51°13.953 2°55.639 21.4109 0.067112 0.359395 1.506764
2009-06-24 06:57:04 51°13.952 2°55.639 21.412 0.067112 0.359395 1.506764
2009-06-24 06:57:09 51°13.952 2°55.639 21.411 0.067112 0.359395 1.506764
2009-06-24 06:57:14 51°13.952 2°55.639 21.411 0.067112 0.359395 1.506764
2009-06-24 06:57:19 51°13.951 2°55.639 21.4104 0.067112 0.359395 1.506764
2009-06-24 06:57:23 51°13.951 2°55.639 21.4124 0.067112 0.359395 1.506764
2009-06-24 06:57:29 51°13.951 2°55.639 21.4134 0.067112 0.359401 1.506764
2009-06-24 06:57:34 51°13.95 2°55.639 21.4149 0.067112 0.359401 1.506764
2009-06-24 06:57:39 51°13.95 2°55.64 21.4148 0.067112 0.359401 1.506764
2009-06-24 06:57:43 51°13.95 2°55.64 21.416 0.067112 0.359401 1.506764
2009-06-24 06:57:49 51°13.95 2°55.64 21.4167 0.067112 0.359401 1.506764
2009-06-24 06:57:54 51°13.95 2°55.64 21.4168 0.067112 0.359407 1.506764
2009-06-24 06:57:59 51°13.95 2°55.64 21.4181 0.067112 0.359407 1.506764
2009-06-24 06:58:03 51°13.949 2°55.64 21.4171 0.067112 0.359413 1.506764
2009-06-24 06:58:09 51°13.949 2°55.64 21.4185 0.067112 0.359413 1.506764
2009-06-24 06:58:14 51°13.949 2°55.64 21.4188 0.067112 0.359413 1.506764
2009-06-24 06:58:19 51°13.949 2°55.64 21.4166 0.067112 0.359413 1.506764
2009-06-24 06:58:24 51°13.949 2°55.64 21.4187 0.067112 0.359413 1.506764
2009-06-24 06:58:28 51°13.949 2°55.64 21.4192 0.067112 0.359413 1.47194
2009-06-24 06:58:34 51°13.949 2°55.639 21.4189 0.067112 0.359419 1.506764
2009-06-24 06:58:38 51°13.949 2°55.639 21.419 0.067112 0.359419 1.506764
2009-06-24 06:58:43 51°13.949 2°55.639 21.4179 0.067112 0.359419 1.506764
2009-06-24 06:58:48 51°13.949 2°55.638 21.4181 0.067112 0.359419 1.506764
2009-06-24 06:58:54 51°13.949 2°55.638 21.4172 0.067112 0.359419 1.506764
2009-06-24 06:58:59 51°13.95 2°55.637 21.4191 0.067112 0.359426 1.506764
2009-06-24 06:59:03 51°13.95 2°55.637 21.4193 0.067112 0.359419 1.506764
2009-06-24 06:59:08 51°13.95 2°55.636 21.4203 0.067112 0.359426 1.506764
2009-06-24 06:59:14 51°13.95 2°55.636 21.4221 0.067112 0.359426 1.506764
2009-06-24 06:59:19 51°13.951 2°55.635 21.4203 0.067112 0.359426 1.506764
2009-06-24 06:59:23 51°13.951 2°55.635 21.4219 0.067112 0.359432 1.506764
2009-06-24 06:59:27 51°13.951 2°55.635 21.4219 0.067112 0.359426 1.506764
2009-06-24 06:59:33 51°13.951 2°55.635 21.4245 0.067112 0.359432 1.506764
2009-06-24 06:59:39 51°13.952 2°55.634 21.4267 0.067112 0.359432 1.506764
2009-06-24 06:59:43 51°13.952 2°55.633 21.4331 0.067112 0.359432 1.506764
2009-06-24 06:59:47 51°13.952 2°55.633 21.4369 0.067112 0.359438 1.506764
2009-06-24 06:59:53 51°13.953 2°55.632 21.4387 0.067112 0.359432 1.506764
2009-06-24 06:59:58 51°13.954 2°55.63 21.4368 0.067112 0.359438 1.506764
2009-06-24 07:00:03 51°13.956 2°55.629 21.4348 0.067112 0.359438 1.506764
2009-06-24 07:00:08 51°13.957 2°55.628 21.4312 0.067112 0.359438 1.506764
2009-06-24 07:00:13 51°13.959 2°55.626 21.4329 0.067112 0.359438 1.506764
2009-06-24 07:00:18 51°13.961 2°55.624 21.4375 0.067112 0.359444 1.506764
2009-06-24 07:00:23 51°13.963 2°55.622 21.4424 0.067112 0.359444 1.506764
2009-06-24 07:00:29 51°13.965 2°55.62 21.444 0.067112 0.359444 1.506764
2009-06-24 07:00:34 51°13.968 2°55.617 21.4437 0.067112 0.359444 1.506764
2009-06-24 07:00:38 51°13.97 2°55.615 21.4437 0.067112 0.35945 1.506764
2009-06-24 07:00:43 51°13.973 2°55.612 21.4432 0.067112 0.35945 1.506764
2009-06-24 07:00:49 51°13.976 2°55.608 21.4426 0.067112 0.359444 1.506764
2009-06-24 07:00:54 51°13.98 2°55.605 21.4438 0.067112 0.35945 1.506764
2009-06-24 07:00:59 51°13.983 2°55.6 21.4722 0.067112 0.35945 1.506764
2009-06-24 07:01:03 51°13.986 2°55.597 21.4872 0.067112 0.35945 1.506764
2009-06-24 07:01:09 51°13.992 2°55.59 21.4843 0.067112 0.35945 1.506764
2009-06-24 07:01:14 51°13.997 2°55.583 21.48 0.067112 0.35945 1.506764
2009-06-24 07:01:18 51°14.001 2°55.577 21.4531 0.067112 0.35945 1.506764
2009-06-24 07:01:23 51°14.007 2°55.569 21.4382 0.067112 0.359457 1.506764
2009-06-24 07:01:28 51°14.014 2°55.561 21.4297 0.067112 0.359457 1.506764
2009-06-24 07:01:34 51°14.022 2°55.551 21.4327 0.067112 0.359457 1.506764
2009-06-24 07:01:38 51°14.028 2°55.544 21.4557 0.067112 0.359463 1.506764
2009-06-24 07:01:43 51°14.035 2°55.534 21.439 0.067112 0.359463 1.506764
2009-06-24 07:01:48 51°14.043 2°55.524 21.4348 0.067112 0.359457 1.506764
2009-06-24 07:01:53 51°14.051 2°55.515 21.4227 0.067112 0.359457 1.506764
2009-06-24 07:01:58 51°14.059 2°55.505 21.445 0.067112 0.359463 1.506764
2009-06-24 07:02:03 51°14.067 2°55.495 21.4403 0.067112 0.359463 1.506764
2009-06-24 07:02:08 51°14.076 2°55.484 21.44 0.067112 0.359463 1.506764
2009-06-24 07:02:14 51°14.086 2°55.472 21.4464 0.067112 0.359463 1.506764
2009-06-24 07:02:18 51°14.093 2°55.464 21.4633 0.067112 0.359469 1.506764
2009-06-24 07:02:23 51°14.102 2°55.453 21.4388 0.067112 0.359475 1.506764
2009-06-24 07:02:28 51°14.11 2°55.443 21.4277 0.067112 0.359469 1.506764
2009-06-24 07:02:34 51°14.121 2°55.43 21.4267 0.067112 0.359469 1.506764
2009-06-24 07:02:38 51°14.128 2°55.422 21.4596 0.067112 0.359475 1.506764
2009-06-24 07:02:43 51°14.137 2°55.412 21.4453 0.067112 0.359475 1.506764
2009-06-24 07:02:48 51°14.147 2°55.401 21.4404 0.067112 0.359475 1.506764
2009-06-24 07:02:54 51°14.157 2°55.389 21.4341 0.067112 0.359475 1.506764
2009-06-24 07:02:58 51°14.164 2°55.381 21.4351 0.067112 0.359481 1.506764
2009-06-24 07:03:03 51°14.172 2°55.372 21.4228 0.067112 0.359481 1.506764
2009-06-24 07:03:08 51°14.18 2°55.362 21.4603 0.067112 0.359481 1.506764
2009-06-24 07:03:13 51°14.188 2°55.353 21.4478 0.067112 0.359481 1.506764
2009-06-24 07:03:18 51°14.195 2°55.344 21.4503 0.067112 0.359487 1.506764
2009-06-24 07:03:23 51°14.202 2°55.335 21.4574 0.067112 0.359487 1.506764
2009-06-24 07:03:28 51°14.21 2°55.327 21.4516 0.067112 0.359487 1.506764
2009-06-24 07:03:33 51°14.217 2°55.319 21.468 0.067112 0.359494 1.506764
2009-06-24 07:03:38 51°14.223 2°55.31 21.4651 0.067112 0.359494 1.506764
2009-06-24 07:03:43 51°14.229 2°55.302 21.4393 0.067112 0.359494 1.506764
2009-06-24 07:03:47 51°14.235 2°55.295 21.4686 0.067112 0.359494 1.506764
2009-06-24 07:03:53 51°14.242 2°55.284 21.4565 0.067112 0.359494 1.506764
2009-06-24 07:03:59 51°14.249 2°55.274 21.4486 0.067112 0.359494 1.506764
2009-06-24 07:04:03 51°14.253 2°55.266 21.4496 0.067112 0.359494 1.506764
2009-06-24 07:04:07 51°14.258 2°55.259 21.4663 0.067112 0.3595 1.506764
2009-06-24 07:04:13 51°14.265 2°55.246 21.4662 0.067112 0.3595 1.506764
2009-06-24 07:04:18 51°14.271 2°55.235 21.4467 0.067112 0.359494 1.506764
2009-06-24 07:04:23 51°14.277 2°55.224 21.4802 0.067112 0.3595 1.506764
2009-06-24 07:04:27 51°14.282 2°55.215 21.444 0.067112 0.359494 1.506764
2009-06-24 07:04:33 51°14.29 2°55.199 21.4082 0.067112 0.3595 1.506764
2009-06-24 07:04:39 51°14.299 2°55.181 21.4575 0.067112 0.3595 1.506764
2009-06-24 07:04:43 51°14.305 2°55.169 21.4164 0.067112 0.3595 1.506764
2009-06-24 07:04:47 51°14.311 2°55.156 21.4474 0.067112 0.359494 1.506764
2009-06-24 07:04:53 51°14.321 2°55.136 21.4434 0.067112 0.3595 1.506764
2009-06-24 07:04:58 51°14.33 2°55.118 21.4106 0.067112 0.359506 1.506764
2009-06-24 07:05:03 51°14.338 2°55.099 21.4064 0.067112 0.3595 1.506764
2009-06-24 07:05:08 51°14.347 2°55.081 21.4004 0.067112 0.3595 1.506764
2009-06-24 07:05:13 51°14.356 2°55.062 21.4193 0.067112 0.3595 1.506764
2009-06-24 07:05:18 51°14.365 2°55.044 21.4389 0.067112 0.3595 1.506764
2009-06-24 07:05:23 51°14.375 2°55.025 21.4072 0.067112 0.359506 1.506764
2009-06-24 07:05:29 51°14.387 2°55.002 21.409 0.067112 0.359512 1.506764
2009-06-24 07:05:34 51°14.396 2°54.983 21.4011 0.067112 0.359512 1.506764
2009-06-24 07:05:39 51°14.406 2°54.965 21.381 0.067112 0.359506 1.506764
2009-06-24 07:05:44 51°14.417 2°54.946 21.373 0.067112 0.359506 1.506764
2009-06-24 07:05:49 51°14.427 2°54.929 21.4093 0.067112 0.359506 1.506764
2009-06-24 07:05:55 51°14.441 2°54.908 21.3982 0.067112 0.359506 1.506764
2009-06-24 07:05:59 51°14.45 2°54.895 21.394 0.067112 0.359506 1.506764
2009-06-24 07:06:04 51°14.462 2°54.878 21.401 0.067112 0.359512 1.506764
2009-06-24 07:06:08 51°14.472 2°54.866 21.4087 0.067112 0.359518 1.506764
2009-06-24 07:06:14 51°14.487 2°54.846 21.4092 0.067112 0.359518 1.506764
2009-06-24 07:06:19 51°14.499 2°54.83 21.4228 0.067112 0.359512 1.506764
2009-06-24 07:06:24 51°14.511 2°54.815 21.4369 0.067112 0.359518 1.506764
2009-06-24 07:06:29 51°14.523 2°54.798 21.4088 0.067112 0.359525 1.506764
2009-06-24 07:06:34 51°14.535 2°54.781 21.4018 0.067112 0.359525 1.506764
2009-06-24 07:06:40 51°14.55 2°54.762 21.4041 0.067112 0.359525 1.506764
2009-06-24 07:06:44 51°14.56 2°54.749 21.4326 0.067112 0.359525 1.506764
2009-06-24 07:06:49 51°14.572 2°54.733 21.4312 0.067009 0.358962 1.506764
2009-06-24 07:06:54 51°14.584 2°54.716 21.3912 0.067112 0.359531 1.506764
2009-06-24 07:06:59 51°14.596 2°54.7 21.3983 0.067112 0.359531 1.506764
2009-06-24 07:07:04 51°14.609 2°54.684 21.4063 0.067112 0.359531 1.506764
2009-06-24 07:07:09 51°14.621 2°54.669 21.373 0.067112 0.359531 1.506764
2009-06-24 07:07:14 51°14.633 2°54.653 21.4139 0.067112 0.359531 1.506764
2009-06-24 07:07:19 51°14.646 2°54.638 21.4214 0.067112 0.359531 1.506764
2009-06-24 07:07:24 51°14.658 2°54.622 21.3985 0.067112 0.359531 1.506764
2009-06-24 07:07:29 51°14.671 2°54.608 21.4199 0.067009 0.358962 1.506764
2009-06-24 07:07:34 51°14.684 2°54.593 21.4228 0.067112 0.359537 1.506764
2009-06-24 07:07:39 51°14.696 2°54.578 21.3867 0.067112 0.359537 1.506764
2009-06-24 07:07:44 51°14.709 2°54.563 21.4182 0.067112 0.359537 1.506764
2009-06-24 07:07:49 51°14.721 2°54.549 21.4336 0.067009 0.358968 1.506764
2009-06-24 07:07:54 51°14.734 2°54.536 21.4224 0.067112 0.359537 1.541588
2009-06-24 07:07:59 51°14.747 2°54.52 21.4317 0.067009 0.358975 1.506764
2009-06-24 07:08:04 51°14.759 2°54.505 21.4343 0.067009 0.358975 1.506764
2009-06-24 07:08:09 51°14.771 2°54.489 21.4102 0.067009 0.358975 1.506764
2009-06-24 07:08:14 51°14.782 2°54.472 21.4188 0.067009 0.358975 1.506764
2009-06-24 07:08:19 51°14.794 2°54.455 21.4048 0.067112 0.359549 1.506764
2009-06-24 07:08:24 51°14.805 2°54.438 21.4226 0.067112 0.359549 1.506764
2009-06-24 07:08:29 51°14.817 2°54.42 21.4282 0.067009 0.358981 1.506764
2009-06-24 07:08:34 51°14.828 2°54.402 21.4174 0.067112 0.359549 1.506764
2009-06-24 07:08:39 51°14.839 2°54.384 21.4406 0.067009 0.358987 1.506764
2009-06-24 07:08:44 51°14.85 2°54.365 21.4109 0.067009 0.358987 1.506764
2009-06-24 07:08:49 51°14.86 2°54.346 21.4371 0.067009 0.358981 1.506764
2009-06-24 07:08:54 51°14.871 2°54.327 21.4328 0.067112 0.359549 1.506764
2009-06-24 07:09:00 51°14.883 2°54.304 21.4086 0.067009 0.358987 1.506764
2009-06-24 07:09:04 51°14.891 2°54.288 21.437 0.067009 0.358987 1.506764
2009-06-24 07:09:09 51°14.9 2°54.268 21.4095 0.067009 0.358987 1.506764
2009-06-24 07:09:14 51°14.91 2°54.247 21.4091 0.067009 0.358987 1.506764
2009-06-24 07:09:19 51°14.919 2°54.227 21.4071 0.067009 0.358987 1.506764
2009-06-24 07:09:24 51°14.928 2°54.206 21.4068 0.067009 0.358987 1.506764
2009-06-24 07:09:29 51°14.939 2°54.188 21.4182 0.067009 0.358987 1.506764
2009-06-24 07:09:35 51°14.951 2°54.165 21.4265 0.067009 0.358987 1.506764
2009-06-24 07:09:39 51°14.959 2°54.15 21.4143 0.067009 0.358993 1.506764
2009-06-24 07:09:44 51°14.969 2°54.131 21.4331 0.067009 0.358993 1.506764
2009-06-24 07:09:48 51°14.978 2°54.117 21.398 0.067112 0.359562 1.506764
2009-06-24 07:09:54 51°14.991 2°54.096 21.4212 0.067009 0.358993 1.541588
2009-06-24 07:09:59 51°15.002 2°54.079 21.4222 0.067009 0.358987 1.506764
2009-06-24 07:10:04 51°15.014 2°54.063 21.385 0.067009 0.358993 1.506764
2009-06-24 07:10:08 51°15.023 2°54.049 21.4318 0.067009 0.358993 1.506764
2009-06-24 07:10:14 51°15.037 2°54.031 21.3893 0.067009 0.358993 1.506764
2009-06-24 07:10:19 51°15.049 2°54.016 21.4193 0.067009 0.358993 1.506764
2009-06-24 07:10:24 51°15.061 2°54.002 21.4168 0.067112 0.359568 1.506764
2009-06-24 07:10:28 51°15.071 2°53.989 21.4194 0.067009 0.358993 1.506764
2009-06-24 07:10:34 51°15.086 2°53.974 21.4082 0.067009 0.359006 1.506764
2009-06-24 07:10:39 51°15.099 2°53.96 21.4211 0.067009 0.358999 1.506764
2009-06-24 07:10:44 51°15.112 2°53.948 21.4163 0.067009 0.358999 1.506764
2009-06-24 07:10:48 51°15.122 2°53.938 21.4164 0.067009 0.359006 1.506764
2009-06-24 07:10:54 51°15.138 2°53.924 21.4284 0.067009 0.359012 1.506764
2009-06-24 07:10:59 51°15.151 2°53.912 21.4151 0.067009 0.359012 1.506764
2009-06-24 07:11:04 51°15.164 2°53.9 21.4232 0.067009 0.359012 1.506764
2009-06-24 07:11:08 51°15.175 2°53.891 21.4186 0.067009 0.359012 1.506764
2009-06-24 07:11:14 51°15.191 2°53.877 21.4197 0.067009 0.359012 1.506764
2009-06-24 07:11:19 51°15.204 2°53.866 21.4347 0.067009 0.359012 1.506764
2009-06-24 07:11:24 51°15.217 2°53.854 21.4316 0.067009 0.359012 1.506764
2009-06-24 07:11:28 51°15.228 2°53.845 21.4327 0.067009 0.359012 1.506764
2009-06-24 07:11:34 51°15.244 2°53.831 21.4123 0.067009 0.359018 1.506764
2009-06-24 07:11:39 51°15.257 2°53.819 21.4265 0.067009 0.359018 1.506764
2009-06-24 07:11:44 51°15.27 2°53.808 21.439 0.067009 0.359018 1.506764
2009-06-24 07:11:48 51°15.281 2°53.799 21.4106 0.067009 0.359018 1.506764
2009-06-24 07:11:54 51°15.297 2°53.785 21.4422 0.067009 0.359018 1.506764
2009-06-24 07:11:59 51°15.31 2°53.773 21.4073 0.067009 0.359024 1.506764
2009-06-24 07:12:04 51°15.324 2°53.761 21.4413 0.067009 0.359018 1.506764
2009-06-24 07:12:08 51°15.334 2°53.752 21.4322 0.067009 0.359024 1.506764
2009-06-24 07:12:14 51°15.351 2°53.738 21.4212 0.067009 0.359024 1.506764
2009-06-24 07:12:19 51°15.364 2°53.726 21.4413 0.067009 0.35903 1.506764
2009-06-24 07:12:24 51°15.377 2°53.714 21.4342 0.067009 0.35903 1.506764
2009-06-24 07:12:28 51°15.388 2°53.704 21.4186 0.067009 0.35903 1.506764
2009-06-24 07:12:34 51°15.404 2°53.69 21.4324 0.067009 0.359036 1.506764
2009-06-24 07:12:39 51°15.417 2°53.677 21.4087 0.067009 0.35903 1.506764
2009-06-24 07:12:44 51°15.43 2°53.664 21.4422 0.067009 0.35903 1.506764
2009-06-24 07:12:48 51°15.44 2°53.653 21.447 0.067009 0.359036 1.506764
2009-06-24 07:12:54 51°15.456 2°53.636 21.42 0.067009 0.359036 1.506764
2009-06-24 07:12:59 51°15.468 2°53.622 21.4514 0.067009 0.359036 1.506764
2009-06-24 07:13:04 51°15.481 2°53.608 21.433 0.067009 0.359036 1.506764
2009-06-24 07:13:08 51°15.491 2°53.597 21.4209 0.067009 0.359043 1.506764
2009-06-24 07:13:14 51°15.506 2°53.579 21.4374 0.067009 0.359043 1.506764
2009-06-24 07:13:19 51°15.519 2°53.565 21.4417 0.067009 0.359043 1.506764
2009-06-24 07:13:24 51°15.531 2°53.55 21.4145 0.067009 0.359043 1.506764
2009-06-24 07:13:28 51°15.542 2°53.539 21.445 0.067009 0.359043 1.506764
2009-06-24 07:13:34 51°15.557 2°53.521 21.4211 0.067009 0.359049 1.506764
2009-06-24 07:13:40 51°15.572 2°53.503 21.4527 0.067009 0.359043 1.506764
2009-06-24 07:13:44 51°15.582 2°53.491 21.4243 0.067009 0.359043 1.506764
2009-06-24 07:13:48 51°15.592 2°53.479 21.4456 0.067009 0.359049 1.506764
2009-06-24 07:13:54 51°15.607 2°53.461 21.4345 0.067009 0.359055 1.506764
2009-06-24 07:13:59 51°15.62 2°53.446 21.4499 0.067009 0.359055 1.506764
2009-06-24 07:14:04 51°15.632 2°53.431 21.4429 0.067009 0.359055 1.506764
2009-06-24 07:14:08 51°15.642 2°53.419 21.4459 0.067009 0.359055 1.506764
2009-06-24 07:14:14 51°15.657 2°53.4 21.4443 0.067009 0.359055 1.506764
2009-06-24 07:14:19 51°15.67 2°53.385 21.4537 0.067009 0.359055 1.506764
2009-06-24 07:14:24 51°15.683 2°53.369 21.4303 0.067009 0.359061 1.506764
2009-06-24 07:14:28 51°15.693 2°53.357 21.4463 0.067009 0.359061 1.506764
2009-06-24 07:14:34 51°15.709 2°53.339 21.4313 0.067009 0.359061 1.506764
2009-06-24 07:14:39 51°15.721 2°53.323 21.4456 0.067009 0.359061 1.506764
2009-06-24 07:14:44 51°15.734 2°53.308 21.4452 0.067009 0.359061 1.506764
2009-06-24 07:14:48 51°15.744 2°53.296 21.4555 0.067009 0.359061 1.506764
2009-06-24 07:14:54 51°15.759 2°53.279 21.4467 0.067009 0.359067 1.506764
2009-06-24 07:14:59 51°15.771 2°53.264 21.4451 0.067009 0.359067 1.506764
2009-06-24 07:15:04 51°15.784 2°53.249 21.4317 0.067009 0.359073 1.506764
2009-06-24 07:15:08 51°15.794 2°53.237 21.453 0.067009 0.359073 1.506764
2009-06-24 07:15:14 51°15.81 2°53.219 21.4344 0.067009 0.359073 1.506764
2009-06-24 07:15:19 51°15.822 2°53.204 21.4481 0.067009 0.359073 1.506764
2009-06-24 07:15:24 51°15.835 2°53.189 21.4589 0.067009 0.359073 1.506764
2009-06-24 07:15:28 51°15.845 2°53.177 21.4583 0.067009 0.35908 1.506764
2009-06-24 07:15:34 51°15.861 2°53.159 21.4504 0.067009 0.35908 1.506764
2009-06-24 07:15:39 51°15.874 2°53.145 21.434 0.067009 0.35908 1.506764
2009-06-24 07:15:44 51°15.887 2°53.13 21.4401 0.067009 0.35908 1.506764
2009-06-24 07:15:48 51°15.897 2°53.12 21.4306 0.067009 0.35908 1.506764
2009-06-24 07:15:54 51°15.912 2°53.103 21.4556 0.067009 0.35908 1.506764
2009-06-24 07:16:00 51°15.929 2°53.087 21.4433 0.067009 0.359086 1.506764
2009-06-24 07:16:04 51°15.939 2°53.076 21.4541 0.067009 0.359086 1.506764
2009-06-24 07:16:08 51°15.95 2°53.066 21.4586 0.067009 0.359092 1.506764
2009-06-24 07:16:14 51°15.966 2°53.05 21.4714 0.067009 0.359092 1.506764
2009-06-24 07:16:19 51°15.979 2°53.036 21.4278 0.067009 0.359092 1.506764
2009-06-24 07:16:24 51°15.992 2°53.024 21.4648 0.067009 0.359086 1.506764
2009-06-24 07:16:28 51°16.003 2°53.014 21.424 0.067009 0.359104 1.576412
2009-06-24 07:16:34 51°16.018 2°52.997 21.4874 0.067009 0.359092 1.506764
2009-06-24 07:16:39 51°16.032 2°52.986 21.4571 0.067009 0.359104 1.64606
2009-06-24 07:16:44 51°16.045 2°52.971 21.4417 0.067009 0.359104 1.64606
2009-06-24 07:16:48 51°16.055 2°52.962 21.4731 0.067009 0.359092 1.680884
2009-06-24 07:16:54 51°16.071 2°52.947 21.4806 0.067009 0.359104 1.715708
2009-06-24 07:16:59 51°16.084 2°52.935 21.4542 0.067009 0.359104 1.715708
2009-06-24 07:17:04 51°16.098 2°52.922 21.4591 0.067009 0.359104 1.715708
2009-06-24 07:17:10 51°16.114 2°52.908 21.4733 0.067009 0.359104 1.715708
2009-06-24 07:17:14 51°16.125 2°52.897 21.4832 0.067009 0.359104 1.715708
2009-06-24 07:17:19 51°16.138 2°52.885 21.4724 0.067009 0.359104 1.750532
2009-06-24 07:17:24 51°16.152 2°52.872 21.4705 0.067009 0.359111 1.750532
2009-06-24 07:17:28 51°16.162 2°52.862 21.4681 0.067009 0.359111 1.750532
2009-06-24 07:17:34 51°16.178 2°52.846 21.4628 0.067009 0.359104 1.785356
2009-06-24 07:17:39 51°16.192 2°52.833 21.481 0.067009 0.359111 1.785356
2009-06-24 07:17:44 51°16.206 2°52.82 20.7373 0.067009 0.359111 1.785356
2009-06-24 07:17:48 51°16.216 2°52.81 20.3064 0.067009 0.359111 3.143494
2009-06-24 07:17:54 51°16.232 2°52.794 20.0517 0.067009 0.359333 2.272893
2009-06-24 07:17:59 51°16.245 2°52.78 19.914 0.091605 0.497247 2.93455
2009-06-24 07:18:04 51°16.258 2°52.767 19.7019 2.550194 17.02816 2.969374
2009-06-24 07:18:08 51°16.269 2°52.757 19.6464 2.824778 18.962746 2.586309
2009-06-24 07:18:14 51°16.284 2°52.741 19.5377 2.824778 18.962746 2.586309
2009-06-24 07:18:20 51°16.3 2°52.725 19.4236 2.890682 19.502822 2.481837
2009-06-24 07:18:24 51°16.311 2°52.715 19.3343 3.568871 24.707923 2.342541
2009-06-24 07:18:28 51°16.321 2°52.704 19.2288 3.833995 26.915448 2.516661
2009-06-24 07:18:34 51°16.337 2°52.688 19.0974 3.896103 27.570876 2.690782
2009-06-24 07:18:39 51°16.35 2°52.674 19.0552 3.892166 27.674805 2.690782
2009-06-24 07:18:44 51°16.363 2°52.66 18.9555 3.892166 27.674805 2.690782
2009-06-24 07:18:48 51°16.373 2°52.65 18.8932 3.875163 27.638588 2.725606
2009-06-24 07:18:54 51°16.389 2°52.633 18.8132 3.868322 27.681004 2.690782
2009-06-24 07:18:59 51°16.402 2°52.62 18.7327 3.866665 27.761046 2.690782
2009-06-24 07:19:04 51°16.415 2°52.606 18.7351 3.858476 27.770833 2.690782
2009-06-24 07:19:08 51°16.426 2°52.595 18.5954 3.889375 28.111091 2.725606
2009-06-24 07:19:14 51°16.441 2°52.579 18.516 3.889375 28.111091 2.725606
2009-06-24 07:19:19 51°16.455 2°52.566 18.4563 3.906277 28.318803 2.725606
2009-06-24 07:19:24 51°16.468 2°52.552 18.3874 3.911048 28.420044 2.690782
2009-06-24 07:19:30 51°16.483 2°52.535 18.339 3.936351 28.693526 2.725606
2009-06-24 07:19:34 51°16.494 2°52.524 18.3105 3.949729 28.85417 2.690782
2009-06-24 07:19:39 51°16.507 2°52.511 18.3 3.968085 29.064831 2.690782
2009-06-24 07:19:44 51°16.52 2°52.498 18.2761 3.968085 29.064831 2.690782
2009-06-24 07:19:48 51°16.531 2°52.488 18.2204 3.960309 29.07188 2.725606
2009-06-24 07:19:54 51°16.547 2°52.474 18.1985 3.990902 29.372629 2.725606
2009-06-24 07:19:59 51°16.56 2°52.462 18.2236 4.010816 29.596615 2.690782
2009-06-24 07:20:04 51°16.574 2°52.451 18.1774 4.0243 29.756783 2.725606
2009-06-24 07:20:08 51°16.585 2°52.442 18.1826 4.029279 29.834265 2.76043
2009-06-24 07:20:15 51°16.604 2°52.426 18.1406 4.029279 29.834265 2.76043
2009-06-24 07:20:20 51°16.618 2°52.415 18.1376 4.033739 29.906528 2.725606
2009-06-24 07:20:24 51°16.629 2°52.407 18.0831 4.037578 29.971535 2.725606
2009-06-24 07:20:28 51°16.64 2°52.399 18.0776 4.045357 30.059509 2.795254
2009-06-24 07:20:34 51°16.657 2°52.386 18.0609 4.04598 30.077371 2.76043
2009-06-24 07:20:39 51°16.671 2°52.377 18.0275 4.042972 30.067493 2.76043
2009-06-24 07:20:44 51°16.684 2°52.367 18.0262 4.042972 30.067493 2.76043
2009-06-24 07:20:48 51°16.696 2°52.361 18.0176 4.048055 30.125238 2.76043
2009-06-24 07:20:54 51°16.713 2°52.349 18.0155 4.055108 30.207548 2.795254
2009-06-24 07:20:59 51°16.726 2°52.34 17.9695 4.062784 30.290507 2.76043
2009-06-24 07:21:04 51°16.74 2°52.331 17.9595 4.068282 30.357831 2.795254
2009-06-24 07:21:08 51°16.752 2°52.325 17.9299 4.073987 30.426991 2.795254
2009-06-24 07:21:14 51°16.768 2°52.315 17.9518 4.073987 30.426991 2.795254
2009-06-24 07:21:19 51°16.782 2°52.308 17.9355 4.071083 30.421625 2.725606
2009-06-24 07:21:24 51°16.796 2°52.299 17.9163 4.074506 30.465437 2.76043
2009-06-24 07:21:28 51°16.807 2°52.293 17.8976 4.081768 30.539525 2.690782
2009-06-24 07:21:34 51°16.824 2°52.284 17.915 4.082287 30.558041 2.690782
2009-06-24 07:21:39 51°16.838 2°52.277 17.8733 4.098676 30.714428 2.690782
2009-06-24 07:21:44 51°16.852 2°52.269 17.889 4.098676 30.714428 2.690782
2009-06-24 07:21:48 51°16.863 2°52.264 17.8622 4.089133 30.647203 2.690782
2009-06-24 07:21:54 51°16.88 2°52.256 17.8647 4.105938 30.795975 2.690782
2009-06-24 07:21:59 51°16.894 2°52.248 17.8496 4.111229 30.851581 2.655957
2009-06-24 07:22:04 51°16.908 2°52.241 17.8332 4.113096 30.876189 2.655957
2009-06-24 07:22:09 51°16.923 2°52.235 17.8437 4.116312 30.915705 2.690782
2009-06-24 07:22:15 51°16.939 2°52.226 17.8195 4.116312 30.915705 2.690782
2009-06-24 07:22:19 51°16.951 2°52.222 17.8194 4.122848 30.979459 2.655957
2009-06-24 07:22:24 51°16.965 2°52.216 17.8128 4.120047 30.963213 2.655957
2009-06-24 07:22:29 51°16.979 2°52.211 17.8206 4.12679 31.030574 2.690782
2009-06-24 07:22:34 51°16.993 2°52.206 17.8192 4.132807 31.090698 2.690782
2009-06-24 07:22:40 51°17.01 2°52.2 17.809 4.138513 31.147654 2.690782
2009-06-24 07:22:44 51°17.022 2°52.196 17.7928 4.138513 31.147654 2.690782
2009-06-24 07:22:49 51°17.036 2°52.191 17.7972 4.140485 31.171476 2.690782
2009-06-24 07:22:54 51°17.05 2°52.187 17.7833 4.144116 31.209252 2.690782
2009-06-24 07:22:59 51°17.065 2°52.182 17.7947 4.143805 31.2115 2.690782
2009-06-24 07:23:04 51°17.079 2°52.178 17.7682 4.14339 31.21166 2.690782
2009-06-24 07:23:09 51°17.093 2°52.173 17.7677 4.142871 31.21095 2.725606
2009-06-24 07:23:14 51°17.108 2°52.168 17.764 4.142871 31.21095 2.725606
2009-06-24 07:23:19 51°17.122 2°52.164 17.7664 4.144531 31.229154 2.76043
2009-06-24 07:23:24 51°17.136 2°52.159 17.7673 4.151378 31.295847 2.725606
2009-06-24 07:23:29 51°17.15 2°52.154 17.7491 4.154387 31.326029 2.76043
2009-06-24 07:23:34 51°17.165 2°52.149 17.7547 4.156669 31.350115 2.725606
2009-06-24 07:23:39 51°17.179 2°52.145 17.7435 4.159471 31.377964 2.76043
2009-06-24 07:23:44 51°17.193 2°52.14 17.7413 4.159471 31.377964 2.76043
2009-06-24 07:23:49 51°17.208 2°52.135 17.7422 4.161442 31.4019 2.76043
2009-06-24 07:23:54 51°17.222 2°52.131 17.7433 4.164139 31.428284 2.76043
2009-06-24 07:23:59 51°17.236 2°52.126 17.7426 4.165177 31.4407 2.795254
2009-06-24 07:24:04 51°17.251 2°52.121 17.727 4.167045 31.460722 2.795254
2009-06-24 07:24:09 51°17.265 2°52.117 17.7224 4.167978 31.4735 2.795254
2009-06-24 07:24:15 51°17.282 2°52.111 17.7196 4.167978 31.4735 2.795254
2009-06-24 07:24:20 51°17.296 2°52.107 17.7106 4.168497 31.482172 2.795254
2009-06-24 07:24:24 51°17.308 2°52.103 17.7129 4.168393 31.483756 2.830078
2009-06-24 07:24:29 51°17.322 2°52.099 17.7169 4.16995 31.499329 2.864902
2009-06-24 07:24:35 51°17.339 2°52.093 17.7036 4.171195 31.512282 2.864902
2009-06-24 07:24:39 51°17.35 2°52.089 17.6971 4.173789 31.539071 2.899726
2009-06-24 07:24:44 51°17.364 2°52.085 17.6972 4.173789 31.539071 2.899726
2009-06-24 07:24:49 51°17.379 2°52.08 17.6867 4.174411 31.548633 2.899726
2009-06-24 07:24:54 51°17.393 2°52.075 17.6852 4.175967 31.566689 2.899726
2009-06-24 07:25:00 51°17.41 2°52.07 17.6942 4.17576 31.568639 2.93455
2009-06-24 07:25:04 51°17.421 2°52.065 17.673 4.177524 31.585986 2.93455
2009-06-24 07:25:09 51°17.435 2°52.059 17.6682 4.179288 31.607042 2.93455
2009-06-24 07:25:14 51°17.448 2°52.052 17.6653 4.179288 31.607042 2.93455
2009-06-24 07:25:19 51°17.461 2°52.041 17.6666 4.181259 31.628005 2.93455
2009-06-24 07:25:24 51°17.474 2°52.03 17.6601 4.180948 31.629088 2.969374
2009-06-24 07:25:29 51°17.486 2°52.017 17.6485 4.183438 31.655059 2.969374
2009-06-24 07:25:34 51°17.498 2°52.004 17.6429 4.184372 31.665421 3.004198
2009-06-24 07:25:39 51°17.51 2°51.989 17.6516 4.185824 31.683884 3.004198
2009-06-24 07:25:44 51°17.522 2°51.974 17.6459 4.185824 31.683884 3.004198
2009-06-24 07:25:49 51°17.533 2°51.957 17.642 4.186758 31.696732 3.039022
2009-06-24 07:25:54 51°17.544 2°51.941 17.6338 4.188003 31.712215 3.039022
2009-06-24 07:25:59 51°17.555 2°51.923 17.6348 4.188626 31.7212 3.073846
2009-06-24 07:26:04 51°17.566 2°51.906 17.6291 4.189249 31.732052 3.073846
2009-06-24 07:26:09 51°17.575 2°51.887 17.6407 4.188107 31.724268 3.073846
2009-06-24 07:26:15 51°17.588 2°51.865 17.6315 4.188107 31.724268 3.073846
2009-06-24 07:26:19 51°17.596 2°51.849 17.6239 4.190286 31.745172 3.10867
2009-06-24 07:26:24 51°17.606 2°51.83 17.6146 4.191013 31.7538 3.073846
2009-06-24 07:26:29 51°17.616 2°51.81 17.6169 4.192258 31.768682 3.10867
2009-06-24 07:26:35 51°17.627 2°51.786 17.6208 4.19205 31.769417 3.073846
2009-06-24 07:26:40 51°17.637 2°51.766 17.6149 4.195889 31.805001 3.143494
2009-06-24 07:26:44 51°17.645 2°51.75 17.6166 4.195889 31.805001 3.143494
2009-06-24 07:26:49 51°17.654 2°51.73 17.6042 4.196408 31.810013 3.143494
2009-06-24 07:26:54 51°17.663 2°51.71 17.5994 4.197238 31.820775 3.10867
2009-06-24 07:27:00 51°17.674 2°51.686 17.6059 4.198172 31.833667 3.178318
2009-06-24 07:27:04 51°17.682 2°51.67 17.6044 4.198795 31.841432 3.178318
2009-06-24 07:27:09 51°17.691 2°51.649 17.6028 4.199106 31.845315 3.178318
2009-06-24 07:27:14 51°17.7 2°51.628 17.6116 4.199106 31.845315 3.178318
2009-06-24 07:27:19 51°17.709 2°51.608 17.6009 4.199521 31.850076 3.213142
2009-06-24 07:27:24 51°17.718 2°51.587 17.6021 4.200558 31.862606 3.213142
2009-06-24 07:27:29 51°17.727 2°51.566 17.6006 4.200974 31.869869 3.247966
2009-06-24 07:27:34 51°17.735 2°51.544 17.5977 4.201181 31.873501 3.247966
2009-06-24 07:27:39 51°17.743 2°51.522 17.6027 4.201181 31.874751 3.247966
2009-06-24 07:27:44 51°17.751 2°51.5 17.6049 4.201181 31.874751 3.247966
2009-06-24 07:27:49 51°17.759 2°51.477 17.6009 4.201181 31.874751 3.28279
2009-06-24 07:27:54 51°17.766 2°51.454 17.604 4.201181 31.875376 3.317614
2009-06-24 07:27:59 51°17.774 2°51.431 17.6036 4.201181 31.876627 3.28279
2009-06-24 07:28:04 51°17.782 2°51.408 17.6016 4.201285 31.878756 3.317614
2009-06-24 07:28:09 51°17.789 2°51.385 17.5968 4.201077 31.877624 3.352439
2009-06-24 07:28:14 51°17.797 2°51.362 17.6025 4.201077 31.877624 3.352439
2009-06-24 07:28:19 51°17.804 2°51.339 17.6013 4.201077 31.877624 3.352439
2009-06-24 07:28:24 51°17.811 2°51.315 17.615 4.200974 31.876745 3.352439
2009-06-24 07:28:29 51°17.818 2°51.292 17.5963 4.200766 31.873737 3.387263
2009-06-24 07:28:35 51°17.827 2°51.264 17.5948 4.200662 31.872859 3.422087
2009-06-24 07:28:39 51°17.832 2°51.245 17.5978 4.200559 31.872605 3.422087
2009-06-24 07:28:44 51°17.839 2°51.222 17.6021 4.200559 31.872605 3.422087
2009-06-24 07:28:49 51°17.847 2°51.198 17.6061 4.200247 31.871219 3.456911
2009-06-24 07:28:55 51°17.855 2°51.17 17.5979 4.199832 31.867705 3.456911
2009-06-24 07:29:00 51°17.863 2°51.147 17.5948 4.199314 31.863311 3.491735
2009-06-24 07:29:04 51°17.868 2°51.128 17.5947 4.198899 31.861672 3.491735
2009-06-24 07:29:09 51°17.876 2°51.104 17.5978 4.198276 31.858275 3.526559
2009-06-24 07:29:14 51°17.883 2°51.08 17.5915 4.198276 31.858275 3.526559
2009-06-24 07:29:20 51°17.891 2°51.052 17.5952 4.197965 31.855638 3.526559
2009-06-24 07:29:24 51°17.897 2°51.033 17.5972 4.19755 31.851499 3.526559
2009-06-24 07:29:29 51°17.904 2°51.009 17.599 4.197031 31.848355 3.561383
2009-06-24 07:29:34 51°17.912 2°50.985 17.5971 4.196512 31.844586 3.561383
2009-06-24 07:29:40 51°17.921 2°50.957 17.605 4.196201 31.842575 3.561383
2009-06-24 07:29:44 51°17.926 2°50.938 17.5993 4.196201 31.842575 3.561383
2009-06-24 07:29:49 51°17.934 2°50.914 17.5974 4.195475 31.837049 3.596207
2009-06-24 07:29:54 51°17.941 2°50.891 17.6054 4.194748 31.830898 3.561383
2009-06-24 07:29:59 51°17.948 2°50.867 17.6028 4.194541 31.827892 3.596207
2009-06-24 07:30:04 51°17.955 2°50.843 17.6028 4.194541 31.827892 3.596207
2009-06-24 07:30:09 51°17.962 2°50.819 17.6014 4.193918 31.821996 3.596207
2009-06-24 07:30:14 51°17.969 2°50.795 17.6038 4.193918 31.821996 3.596207
2009-06-24 07:30:19 51°17.977 2°50.771 17.6026 4.193607 31.818737 3.631031
2009-06-24 07:30:24 51°17.984 2°50.747 17.6049 4.19423 31.824008 3.631031
2009-06-24 07:30:29 51°17.992 2°50.723 17.599 4.194022 31.820378 3.596207
2009-06-24 07:30:34 51°17.999 2°50.699 17.6042 4.194022 31.819754 3.596207
2009-06-24 07:30:39 51°18.006 2°50.675 17.6044 4.194022 31.820378 3.631031
2009-06-24 07:30:44 51°18.013 2°50.651 17.6034 4.194022 31.820378 3.631031
2009-06-24 07:30:49 51°18.02 2°50.627 17.6049 4.193918 31.818875 3.631031
2009-06-24 07:30:55 51°18.028 2°50.598 17.6094 4.193815 31.817997 3.631031
2009-06-24 07:30:59 51°18.035 2°50.58 17.6039 4.193607 31.81624 3.596207
2009-06-24 07:31:04 51°18.041 2°50.555 17.6053 4.193296 31.813605 3.596207
2009-06-24 07:31:09 51°18.048 2°50.531 17.6029 4.192985 31.810345 3.631031
2009-06-24 07:31:15 51°18.057 2°50.502 17.6033 4.192985 31.810345 3.631031
2009-06-24 07:31:20 51°18.064 2°50.478 17.6029 4.192673 31.80771 3.596207
2009-06-24 07:31:24 51°18.07 2°50.459 17.6031 4.192362 31.805075 3.596207
2009-06-24 07:31:29 51°18.078 2°50.435 17.6058 4.191947 31.800937 3.631031
2009-06-24 07:31:34 51°18.085 2°50.411 17.6031 4.191532 31.797424 3.631031
2009-06-24 07:31:40 51°18.094 2°50.383 17.6021 4.191221 31.794789 3.631031
2009-06-24 07:31:44 51°18.1 2°50.364 17.6054 4.191221 31.794789 3.631031
2009-06-24 07:31:49 51°18.108 2°50.34 17.6024 4.189976 31.784872 3.631031
2009-06-24 07:31:54 51°18.116 2°50.316 17.602 4.189664 31.782861 3.631031
2009-06-24 07:32:00 51°18.125 2°50.287 17.6111 4.189561 31.781983 3.631031
2009-06-24 07:32:04 51°18.131 2°50.268 17.6045 4.189561 31.781983 3.631031
2009-06-24 07:32:09 51°18.139 2°50.244 17.611 4.189664 31.782861 3.631031
2009-06-24 07:32:14 51°18.146 2°50.219 17.6096 4.189664 31.782861 3.631031
2009-06-24 07:32:19 51°18.153 2°50.195 17.6152 4.189457 31.781728 3.665855
2009-06-24 07:32:24 51°18.161 2°50.171 17.6138 4.189664 31.783484 3.596207
2009-06-24 07:32:29 51°18.168 2°50.147 17.6126 4.189976 31.785496 3.631031
2009-06-24 07:32:34 51°18.175 2°50.123 17.6136 4.189768 31.783116 3.631031
2009-06-24 07:32:39 51°18.183 2°50.099 17.6108 4.191013 31.792409 3.631031
2009-06-24 07:32:44 51°18.189 2°50.074 17.6112 4.191013 31.792409 3.631031
2009-06-24 07:32:49 51°18.197 2°50.05 17.6147 4.191117 31.79204 3.631031
2009-06-24 07:32:54 51°18.204 2°50.026 17.6149 4.192154 31.798952 3.631031
2009-06-24 07:32:59 51°18.211 2°50.001 17.6109 4.192984 31.804731 3.596207
2009-06-24 07:33:04 51°18.218 2°49.977 17.6112 4.193918 31.812012 3.561383
2009-06-24 07:33:09 51°18.225 2°49.953 17.6124 4.194956 31.821419 3.596207
2009-06-24 07:33:15 51°18.234 2°49.923 17.6101 4.194956 31.821419 3.596207
2009-06-24 07:33:20 51°18.241 2°49.899 17.6099 4.195993 31.830202 3.596207
2009-06-24 07:33:24 51°18.246 2°49.879 17.612 4.196408 31.833716 3.596207
2009-06-24 07:33:29 51°18.253 2°49.855 17.612 4.196512 31.834594 3.596207
2009-06-24 07:33:35 51°18.262 2°49.826 17.6109 4.197861 31.846638 3.561383
2009-06-24 07:33:40 51°18.269 2°49.802 17.6156 4.198276 31.850152 3.561383
2009-06-24 07:33:44 51°18.275 2°49.783 17.6143 4.198276 31.850152 3.561383
2009-06-24 07:33:49 51°18.282 2°49.758 17.6136 4.19921 31.858059 3.561383
2009-06-24 07:33:55 51°18.291 2°49.73 17.6149 4.199832 31.86333 3.526559
2009-06-24 07:33:59 51°18.297 2°49.711 17.6169 4.200247 31.867469 3.526559
2009-06-24 07:34:04 51°18.305 2°49.687 17.6154 4.200766 31.871237 3.526559
2009-06-24 07:34:09 51°18.312 2°49.663 17.6183 4.201181 31.874126 3.526559
2009-06-24 07:34:14 51°18.319 2°49.64 17.6158 4.201181 31.874126 3.526559
2009-06-24 07:34:20 51°18.328 2°49.611 17.6179 4.201077 31.873247 3.526559
2009-06-24 07:34:24 51°18.334 2°49.592 17.6172 4.201907 31.879651 3.491735
2009-06-24 07:34:29 51°18.341 2°49.569 17.6241 4.202322 31.883165 3.491735
2009-06-24 07:34:34 51°18.349 2°49.545 17.6199 4.202219 31.881661 3.526559
2009-06-24 07:34:39 51°18.356 2°49.522 17.6216 4.202945 31.887186 3.491735
2009-06-24 07:34:44 51°18.363 2°49.498 17.6227 4.202945 31.887186 3.491735
2009-06-24 07:34:49 51°18.371 2°49.474 17.6199 4.203256 31.889197 3.491735
2009-06-24 07:34:55 51°18.38 2°49.446 17.6208 4.203464 31.890954 3.456911
2009-06-24 07:34:59 51°18.386 2°49.427 17.6241 4.203775 31.892964 3.456911
2009-06-24 07:35:04 51°18.393 2°49.403 17.6239 4.203982 31.89347 3.456911
2009-06-24 07:35:09 51°18.4 2°49.38 17.6272 4.204294 31.895481 3.456911
2009-06-24 07:35:15 51°18.409 2°49.351 17.6241 4.204294 31.895481 3.456911
2009-06-24 07:35:19 51°18.415 2°49.332 17.6226 4.204501 31.896612 3.456911
2009-06-24 07:35:24 51°18.422 2°49.308 17.6219 4.204916 31.900752 3.456911
2009-06-24 07:35:29 51°18.431 2°49.285 17.6245 4.20502 31.901631 3.456911
2009-06-24 07:35:35 51°18.439 2°49.256 17.6239 4.203775 31.890463 3.456911
2009-06-24 07:35:40 51°18.447 2°49.233 17.626 4.203671 31.888334 3.456911
2009-06-24 07:35:44 51°18.453 2°49.214 17.6249 4.203671 31.888334 3.456911
2009-06-24 07:35:49 51°18.461 2°49.19 17.6234 4.203671 31.887709 3.422087
2009-06-24 07:35:55 51°18.47 2°49.162 17.6221 4.205954 31.907661 3.387263
2009-06-24 07:36:00 51°18.477 2°49.139 17.625 4.205954 31.907661 3.422087
2009-06-24 07:36:04 51°18.483 2°49.119 17.6265 4.206058 31.908539 3.422087
2009-06-24 07:36:09 51°18.491 2°49.096 17.6232 4.206058 31.908539 3.422087
2009-06-24 07:36:14 51°18.498 2°49.072 17.6268 4.206058 31.908539 3.422087
2009-06-24 07:36:20 51°18.508 2°49.043 17.6249 4.206058 31.907914 3.456911
2009-06-24 07:36:24 51°18.514 2°49.024 17.6242 4.205954 31.907035 3.387263
2009-06-24 07:36:29 51°18.521 2°49 17.6255 4.205746 31.905278 3.422087
2009-06-24 07:36:34 51°18.529 2°48.976 17.6315 4.205642 31.903774 3.422087
2009-06-24 07:36:40 51°18.537 2°48.946 17.6272 4.205539 31.902896 3.422087
2009-06-24 07:36:44 51°18.544 2°48.928 17.6294 4.205539 31.902896 3.422087
2009-06-24 07:36:49 51°18.552 2°48.904 17.6281 4.205331 31.901139 3.422087
2009-06-24 07:36:54 51°18.559 2°48.88 17.6298 4.205124 31.900007 3.387263
2009-06-24 07:36:59 51°18.567 2°48.857 17.6317 4.203567 31.886205 3.422087
2009-06-24 07:37:04 51°18.575 2°48.834 17.6305 4.203152 31.882066 3.422087
2009-06-24 07:37:09 51°18.582 2°48.809 17.6346 4.202841 31.878181 3.387263
2009-06-24 07:37:14 51°18.59 2°48.785 17.6285 4.202841 31.878181 3.387263
2009-06-24 07:37:19 51°18.597 2°48.761 17.632 4.20253 31.874921 3.387263
2009-06-24 07:37:24 51°18.605 2°48.738 17.6313 4.202115 31.870783 3.422087
2009-06-24 07:37:29 51°18.612 2°48.714 17.632 4.2017 31.866645 3.456911
2009-06-24 07:37:35 51°18.622 2°48.685 17.6312 4.201285 31.863132 3.456911
2009-06-24 07:37:39 51°18.628 2°48.666 17.6334 4.200973 31.860498 3.422087
2009-06-24 07:37:44 51°18.636 2°48.642 17.6322 4.200973 31.860498 3.422087
2009-06-24 07:37:49 51°18.643 2°48.618 17.6343 4.200143 31.852848 3.422087
2009-06-24 07:37:55 51°18.653 2°48.59 17.6366 4.199936 31.851716 3.422087
2009-06-24 07:38:00 51°18.661 2°48.566 17.632 4.198795 31.841432 3.422087
2009-06-24 07:38:04 51°18.668 2°48.547 17.6357 4.198691 31.840554 3.422087
2009-06-24 07:38:09 51°18.675 2°48.522 17.6352 4.198276 31.836417 3.422087
2009-06-24 07:38:15 51°18.685 2°48.494 17.6327 4.198276 31.836417 3.422087
2009-06-24 07:38:20 51°18.692 2°48.469 17.6338 4.198276 31.835793 3.422087
2009-06-24 07:38:24 51°18.698 2°48.45 17.6348 4.196616 31.821121 3.456911
2009-06-24 07:38:29 51°18.706 2°48.425 17.6345 4.197342 31.827267 3.422087
2009-06-24 07:38:34 51°18.714 2°48.401 17.6365 4.196201 31.817609 3.422087
2009-06-24 07:38:40 51°18.723 2°48.372 17.6342 4.196408 31.818117 3.422087
2009-06-24 07:38:44 51°18.729 2°48.353 17.6347 4.196408 31.818117 3.422087
2009-06-24 07:38:49 51°18.737 2°48.329 17.6342 4.196097 31.816107 3.456911
2009-06-24 07:38:54 51°18.745 2°48.305 17.6338 4.195578 31.811717 3.422087
2009-06-24 07:38:59 51°18.753 2°48.281 17.636 4.195371 31.809961 3.422087
2009-06-24 07:39:04 51°18.761 2°48.259 17.643 4.194437 31.80206 3.422087
2009-06-24 07:39:09 51°18.772 2°48.239 17.6325 4.193607 31.794414 3.456911
2009-06-24 07:39:14 51°18.782 2°48.22 17.6309 4.193607 31.794414 3.456911
2009-06-24 07:39:19 51°18.793 2°48.201 17.632 4.193399 31.793281 3.491735
2009-06-24 07:39:24 51°18.804 2°48.183 17.6306 4.193814 31.79617 3.456911
2009-06-24 07:39:29 51°18.815 2°48.166 17.6303 4.19371 31.795292 3.456911
2009-06-24 07:39:34 51°18.827 2°48.149 17.6298 4.19371 31.794045 3.491735
2009-06-24 07:39:39 51°18.838 2°48.133 17.6307 4.193088 31.788779 3.456911
2009-06-24 07:39:44 51°18.85 2°48.116 17.6277 4.193088 31.788779 3.456911
2009-06-24 07:39:49 51°18.862 2°48.101 17.6247 4.193192 31.790902 3.491735
2009-06-24 07:39:55 51°18.877 2°48.081 17.6243 4.193192 31.791526 3.456911
2009-06-24 07:39:59 51°18.887 2°48.07 17.6269 4.193088 31.791894 3.456911
2009-06-24 07:40:04 51°18.899 2°48.054 17.6236 4.193088 31.792517 3.456911
2009-06-24 07:40:09 51°18.912 2°48.039 17.622 4.193192 31.793395 3.422087
2009-06-24 07:40:15 51°18.927 2°48.021 17.623 4.193192 31.793395 3.422087
2009-06-24 07:40:20 51°18.939 2°48.006 17.6181 4.193192 31.794018 3.456911
2009-06-24 07:40:24 51°18.949 2°47.993 17.6194 4.193296 31.796142 3.456911
2009-06-24 07:40:29 51°18.962 2°47.978 17.6159 4.193296 31.798012 3.422087
2009-06-24 07:40:35 51°18.977 2°47.96 17.6132 4.193399 31.799514 3.456911
2009-06-24 07:40:39 51°18.987 2°47.948 17.6136 4.193296 31.799883 3.456911
2009-06-24 07:40:44 51°19 2°47.933 17.6082 4.193296 31.799883 3.456911
2009-06-24 07:40:49 51°19.012 2°47.918 17.6111 4.193296 31.799883 3.456911
2009-06-24 07:40:54 51°19.025 2°47.903 17.6105 4.193503 31.802886 3.456911
2009-06-24 07:41:00 51°19.04 2°47.885 17.6043 4.193503 31.804133 3.422087
2009-06-24 07:41:04 51°19.05 2°47.872 17.6044 4.193814 31.808638 3.387263
2009-06-24 07:41:09 51°19.063 2°47.857 17.6021 4.194229 31.813399 3.456911
2009-06-24 07:41:14 51°19.075 2°47.841 17.5978 4.194229 31.813399 3.456911
2009-06-24 07:41:19 51°19.088 2°47.826 17.5958 4.194645 31.819408 3.456911
2009-06-24 07:41:24 51°19.1 2°47.81 17.5966 4.194956 31.822667 3.422087
2009-06-24 07:41:29 51°19.113 2°47.794 17.5944 4.195267 31.82655 3.422087
2009-06-24 07:41:35 51°19.128 2°47.775 17.5936 4.195371 31.828677 3.422087
2009-06-24 07:41:39 51°19.137 2°47.762 17.5915 4.195371 31.83055 3.422087
2009-06-24 07:41:44 51°19.15 2°47.747 17.5937 4.195371 31.83055 3.422087
2009-06-24 07:41:49 51°19.162 2°47.731 17.5994 4.195371 31.833672 3.387263
2009-06-24 07:41:54 51°19.174 2°47.715 17.588 4.195267 31.834667 3.422087
2009-06-24 07:41:59 51°19.186 2°47.7 17.5888 4.195164 31.835038 3.422087
2009-06-24 07:42:04 51°19.198 2°47.683 17.5883 4.194956 31.834529 3.422087
2009-06-24 07:42:09 51°19.21 2°47.669 17.5859 4.194749 31.833397 3.422087
2009-06-24 07:42:15 51°19.225 2°47.65 17.5888 4.194749 31.833397 3.422087
2009-06-24 07:42:19 51°19.235 2°47.637 17.5884 4.194541 31.832264 3.422087
2009-06-24 07:42:24 51°19.247 2°47.622 17.5854 4.194334 31.831131 3.387263
2009-06-24 07:42:29 51°19.26 2°47.606 17.588 4.194022 31.829744 3.422087
2009-06-24 07:42:35 51°19.275 2°47.587 17.5851 4.193711 31.828357 3.387263
2009-06-24 07:42:40 51°19.288 2°47.572 17.5861 4.1934 31.827594 3.387263
2009-06-24 07:42:44 51°19.298 2°47.561 17.5851 4.1934 31.827594 3.387263
2009-06-24 07:42:49 51°19.311 2°47.545 17.5828 4.193089 31.825582 3.387263
2009-06-24 07:42:54 51°19.324 2°47.531 17.5826 4.192777 31.82357 3.387263
2009-06-24 07:43:00 51°19.34 2°47.513 17.5834 4.192362 31.820055 3.387263
2009-06-24 07:43:04 51°19.35 2°47.501 17.5799 4.192155 31.818921 3.387263
2009-06-24 07:43:09 51°19.363 2°47.485 17.5813 4.191947 31.817788 3.352439
2009-06-24 07:43:14 51°19.375 2°47.47 17.5772 4.191947 31.817788 3.352439
2009-06-24 07:43:19 51°19.388 2°47.456 17.5718 4.19174 31.816031 3.387263
2009-06-24 07:43:24 51°19.401 2°47.44 17.5724 4.191636 31.815152 3.352439
2009-06-24 07:43:29 51°19.414 2°47.426 17.563 4.191429 31.814018 3.352439
2009-06-24 07:43:34 51°19.427 2°47.411 17.5575 4.191325 31.814388 3.352439
2009-06-24 07:43:39 51°19.44 2°47.397 17.5583 4.191221 31.814134 3.352439
2009-06-24 07:43:44 51°19.452 2°47.381 17.5527 4.191221 31.814134 3.352439
2009-06-24 07:43:49 51°19.465 2°47.366 17.5503 4.191325 31.815637 3.387263
2009-06-24 07:43:55 51°19.48 2°47.348 17.5448 4.191429 31.81839 3.352439
2009-06-24 07:43:59 51°19.491 2°47.336 17.5398 4.191636 31.823896 3.352439
2009-06-24 07:44:04 51°19.503 2°47.321 17.5424 4.19174 31.8279 3.317614
2009-06-24 07:44:10 51°19.518 2°47.303 17.5332 4.19174 31.832275 3.317614
2009-06-24 07:44:14 51°19.528 2°47.291 17.53 4.19174 31.832275 3.317614
2009-06-24 07:44:19 51°19.541 2°47.276 17.5202 4.19174 31.836026 3.317614
2009-06-24 07:44:24 51°19.554 2°47.26 17.5201 4.191636 31.837023 3.317614
2009-06-24 07:44:28 51°19.564 2°47.248 17.5193 4.191533 31.840522 3.317614
2009-06-24 07:44:34 51°19.579 2°47.23 17.5099 4.191429 31.842144 3.28279
2009-06-24 07:44:39 51°19.591 2°47.214 17.5073 4.191325 31.845019 3.28279
2009-06-24 07:44:44 51°19.604 2°47.199 17.5029 4.191325 31.845019 3.28279
2009-06-24 07:44:49 51°19.616 2°47.183 17.5042 4.191222 31.847268 3.28279
2009-06-24 07:44:55 51°19.631 2°47.165 17.4948 4.19091 31.849636 3.247966
2009-06-24 07:44:59 51°19.641 2°47.152 17.4955 4.190807 31.853139 3.213142
2009-06-24 07:45:04 51°19.654 2°47.137 17.4872 4.190599 31.855137 3.247966
2009-06-24 07:45:08 51°19.664 2°47.124 17.4858 4.190288 31.856254 3.247966
2009-06-24 07:45:15 51°19.682 2°47.103 17.4852 4.190288 31.856254 3.247966
2009-06-24 07:45:20 51°19.694 2°47.087 17.4792 4.190184 31.85788 3.213142
2009-06-24 07:45:24 51°19.705 2°47.075 17.4754 4.189873 31.859625 3.213142
2009-06-24 07:45:28 51°19.715 2°47.063 17.4755 4.189562 31.860744 3.213142
2009-06-24 07:45:34 51°19.73 2°47.045 17.4777 4.189355 31.862744 3.213142
2009-06-24 07:45:40 51°19.746 2°47.028 17.4794 4.18894 31.862357 3.213142
2009-06-24 07:45:44 51°19.757 2°47.019 17.4767 4.18894 31.862357 3.213142
2009-06-24 07:45:48 51°19.768 2°47.011 17.4701 4.188628 31.862222 3.178318
2009-06-24 07:45:54 51°19.784 2°47.001 17.4733 4.188317 31.862715 3.178318
2009-06-24 07:45:59 51°19.798 2°46.996 17.4701 4.187902 31.862955 3.178318
2009-06-24 07:46:04 51°19.812 2°46.994 17.4644 4.187591 31.861566 3.178318
2009-06-24 07:46:08 51°19.823 2°46.993 17.4637 4.18728 31.859551 3.178318
2009-06-24 07:46:14 51°19.839 2°46.995 17.4632 4.18728 31.859551 3.178318
2009-06-24 07:46:19 51°19.852 2°46.996 17.4637 4.187176 31.859297 3.178318
2009-06-24 07:46:24 51°19.866 2°46.999 17.465 4.186761 31.857655 3.143494
2009-06-24 07:46:30 51°19.881 2°47.004 17.4641 4.186242 31.854504 3.143494
2009-06-24 07:46:34 51°19.891 2°47.009 17.4619 4.186139 31.854877 3.143494
2009-06-24 07:46:39 51°19.904 2°47.015 17.4628 4.185724 31.853862 3.143494
2009-06-24 07:46:44 51°19.916 2°47.022 17.4596 4.185724 31.853862 3.143494
2009-06-24 07:46:49 51°19.928 2°47.029 17.4575 4.185101 31.850457 3.10867
2009-06-24 07:46:55 51°19.943 2°47.039 17.4594 4.184686 31.847559 3.143494
2009-06-24 07:46:59 51°19.953 2°47.046 17.4581 4.184271 31.844662 3.143494
2009-06-24 07:47:04 51°19.965 2°47.055 17.4555 4.183752 31.840883 3.10867
2009-06-24 07:47:09 51°19.976 2°47.064 17.4596 4.183234 31.837731 3.10867
2009-06-24 07:47:15 51°19.991 2°47.075 17.457 4.183234 31.837731 3.10867
2009-06-24 07:47:20 51°20.002 2°47.085 17.4615 4.182819 31.834834 3.143494
2009-06-24 07:47:24 51°20.012 2°47.092 17.4601 4.182507 31.834071 3.10867
2009-06-24 07:47:29 51°20.024 2°47.102 17.4619 4.181989 31.830919 3.10867
2009-06-24 07:47:34 51°20.035 2°47.112 17.4616 4.181366 31.825632 3.10867
2009-06-24 07:47:40 51°20.049 2°47.123 17.4613 4.180744 31.820971 3.073846
2009-06-24 07:47:44 51°20.059 2°47.13 17.4644 4.180744 31.820971 3.073846
2009-06-24 07:47:49 51°20.07 2°47.14 17.4653 4.180329 31.81682 3.073846
2009-06-24 07:47:54 51°20.082 2°47.149 17.4641 4.179914 31.813295 3.10867
2009-06-24 07:48:00 51°20.096 2°47.161 17.4633 4.179602 31.810652 3.073846
2009-06-24 07:48:04 51°20.105 2°47.169 17.4653 4.178772 31.802976 3.073846
2009-06-24 07:48:09 51°20.117 2°47.179 17.4644 4.17815 31.797063 3.10867
2009-06-24 07:48:14 51°20.129 2°47.189 17.4677 4.17815 31.797063 3.10867
2009-06-24 07:48:19 51°20.14 2°47.199 17.4687 4.177527 31.791777 3.10867
2009-06-24 07:48:24 51°20.152 2°47.207 17.4676 4.176801 31.784358 3.073846
2009-06-24 07:48:29 51°20.164 2°47.216 17.4695 4.175971 31.776684 3.10867
2009-06-24 07:48:35 51°20.178 2°47.227 17.4713 4.175245 31.770518 3.10867
2009-06-24 07:48:39 51°20.188 2°47.234 17.4729 4.174311 31.761964 3.073846
2009-06-24 07:48:44 51°20.2 2°47.243 17.474 4.174311 31.761964 3.073846
2009-06-24 07:48:49 51°20.213 2°47.25 17.4758 4.173585 31.755173 3.10867
2009-06-24 07:48:55 51°20.228 2°47.26 17.4763 4.172962 31.749263 3.10867
2009-06-24 07:48:59 51°20.238 2°47.265 17.4769 4.172132 31.742217 3.10867
2009-06-24 07:49:04 51°20.251 2°47.272 17.4785 4.171406 31.734802 3.10867
2009-06-24 07:49:10 51°20.266 2°47.281 17.4811 4.170576 31.727132 3.073846
2009-06-24 07:49:14 51°20.276 2°47.286 17.4806 4.170576 31.727132 3.073846
2009-06-24 07:49:19 51°20.289 2°47.293 17.4843 4.169642 31.717332 3.10867
2009-06-24 07:49:24 51°20.302 2°47.301 17.4886 4.168709 31.708159 3.10867
2009-06-24 07:49:29 51°20.315 2°47.307 17.4822 4.167879 31.701115 3.143494
2009-06-24 07:49:35 51°20.33 2°47.316 17.4828 4.167152 31.693704 3.10867
2009-06-24 07:49:39 51°20.341 2°47.32 17.4862 4.166322 31.68479 3.10867
2009-06-24 07:49:44 51°20.354 2°47.327 17.4856 4.166322 31.68479 3.10867
2009-06-24 07:49:48 51°20.364 2°47.331 17.4912 4.165285 31.67474 3.143494
2009-06-24 07:49:54 51°20.38 2°47.337 17.489 4.164351 31.665571 3.143494
2009-06-24 07:50:00 51°20.396 2°47.344 17.4902 4.163417 31.655781 3.143494
2009-06-24 07:50:04 51°20.407 2°47.348 17.4912 4.162172 31.64522 3.143494
2009-06-24 07:50:08 51°20.418 2°47.352 17.4957 4.160927 31.63466 3.143494
2009-06-24 07:50:14 51°20.434 2°47.358 17.4928 4.160927 31.63466 3.143494
2009-06-24 07:50:20 51°20.45 2°47.364 17.4959 4.160097 31.626998 3.143494
2009-06-24 07:50:24 51°20.461 2°47.368 17.4955 4.159371 31.619594 3.143494
2009-06-24 07:50:29 51°20.474 2°47.374 17.5011 4.158645 31.612191 3.143494
2009-06-24 07:50:35 51°20.49 2°47.38 17.5021 4.157504 31.601891 3.143494
2009-06-24 07:50:39 51°20.501 2°47.384 17.5001 4.156674 31.59361 3.143494
2009-06-24 07:50:44 51°20.514 2°47.389 17.5008 4.156674 31.59361 3.143494
2009-06-24 07:50:48 51°20.524 2°47.393 17.502 4.155947 31.586209 3.143494
2009-06-24 07:50:54 51°20.54 2°47.399 17.5062 4.15491 31.57617 3.178318
2009-06-24 07:50:59 51°20.553 2°47.405 17.5056 4.153872 31.566133 3.178318
2009-06-24 07:51:04 51°20.566 2°47.41 17.5024 4.153042 31.557855 3.178318
2009-06-24 07:51:10 51°20.582 2°47.415 17.5046 4.152212 31.548958 3.213142
2009-06-24 07:51:14 51°20.593 2°47.419 17.5015 4.152212 31.548958 3.213142
2009-06-24 07:51:19 51°20.606 2°47.424 17.504 4.151383 31.540682 3.213142
2009-06-24 07:51:24 51°20.619 2°47.428 17.5034 4.150553 31.533648 3.178318
2009-06-24 07:51:28 51°20.63 2°47.431 17.5027 4.149723 31.524754 3.213142
2009-06-24 07:51:35 51°20.649 2°47.437 17.5043 4.149308 31.520618 3.213142
2009-06-24 07:51:39 51°20.66 2°47.44 17.5007 4.148685 31.515343 3.213142
2009-06-24 07:51:44 51°20.673 2°47.443 17.5009 4.148685 31.515343 3.213142
2009-06-24 07:51:48 51°20.684 2°47.444 17.5037 4.147751 31.508051 3.213142
2009-06-24 07:51:55 51°20.703 2°47.447 17.4998 4.147336 31.504535 3.247966
2009-06-24 07:52:00 51°20.718 2°47.447 17.4976 4.146921 31.501018 3.247966
2009-06-24 07:52:04 51°20.729 2°47.447 17.495 4.146818 31.500139 3.247966
2009-06-24 07:52:08 51°20.74 2°47.448 17.4929 4.146506 31.497502 3.213142
2009-06-24 07:52:14 51°20.757 2°47.446 17.4971 4.146506 31.497502 3.213142
2009-06-24 07:52:20 51°20.775 2°47.444 17.4911 4.146092 31.494606 3.247966
2009-06-24 07:52:24 51°20.786 2°47.443 17.491 4.146195 31.495485 3.213142
2009-06-24 07:52:28 51°20.798 2°47.441 17.4898 4.146092 31.495225 3.213142
2009-06-24 07:52:34 51°20.815 2°47.439 17.4876 4.146092 31.496464 3.247966
2009-06-24 07:52:40 51°20.832 2°47.434 17.4882 4.146195 31.498583 3.247966
2009-06-24 07:52:44 51°20.844 2°47.432 17.4816 4.146195 31.498583 3.247966
2009-06-24 07:52:48 51°20.855 2°47.428 17.4798 4.146299 31.500082 3.247966
2009-06-24 07:52:54 51°20.872 2°47.422 17.4788 4.146403 31.50282 3.247966
2009-06-24 07:52:59 51°20.887 2°47.417 17.4737 4.146507 31.504939 3.213142
2009-06-24 07:53:04 51°20.901 2°47.411 17.4708 4.146714 31.507937 3.247966
2009-06-24 07:53:10 51°20.919 2°47.404 17.4662 4.146922 31.510316 3.213142
2009-06-24 07:53:14 51°20.931 2°47.4 17.4644 4.146922 31.510316 3.213142
2009-06-24 07:53:19 51°20.945 2°47.394 17.4575 4.147129 31.513315 3.213142
2009-06-24 07:53:24 51°20.96 2°47.387 17.4552 4.147337 31.517554 3.213142
2009-06-24 07:53:30 51°20.977 2°47.378 17.453 4.147752 31.524174 3.247966
2009-06-24 07:53:34 51°20.989 2°47.372 17.4474 4.148063 31.529295 3.247966
2009-06-24 07:53:39 51°21.003 2°47.363 17.4431 4.148271 31.534158 3.213142
2009-06-24 07:53:44 51°21.018 2°47.355 17.4344 4.148271 31.534158 3.213142
2009-06-24 07:53:50 51°21.035 2°47.344 17.4391 4.148582 31.539902 3.213142
2009-06-24 07:53:55 51°21.049 2°47.335 17.4319 4.148789 31.544767 3.213142
2009-06-24 07:53:59 51°21.06 2°47.328 17.4282 4.149204 31.551393 3.213142
2009-06-24 07:54:04 51°21.074 2°47.32 17.4228 4.149516 31.557141 3.247966
2009-06-24 07:54:08 51°21.086 2°47.313 17.4168 4.149931 31.56377 3.213142
2009-06-24 07:54:15 51°21.105 2°47.3 17.4134 4.149931 31.56377 3.213142
2009-06-24 07:54:20 51°21.12 2°47.291 17.4114 4.150449 31.572524 3.178318
2009-06-24 07:54:24 51°21.131 2°47.284 17.4079 4.150761 31.578276 3.178318
2009-06-24 07:54:28 51°21.142 2°47.276 17.4026 4.151072 31.584029 3.178318
2009-06-24 07:54:34 51°21.159 2°47.265 17.398 4.151487 31.590664 3.178318
2009-06-24 07:54:40 51°21.175 2°47.253 17.3946 4.151902 31.598546 3.178318
2009-06-24 07:54:44 51°21.187 2°47.245 17.3839 4.151902 31.598546 3.178318
2009-06-24 07:54:48 51°21.198 2°47.237 17.3802 4.152421 31.607312 3.178318
2009-06-24 07:54:54 51°21.215 2°47.225 17.3705 4.152732 31.613695 3.178318
2009-06-24 07:55:00 51°21.232 2°47.213 17.3589 4.153044 31.619455 3.143494
2009-06-24 07:55:04 51°21.243 2°47.205 17.3583 4.153562 31.62698 3.143494
2009-06-24 07:55:08 51°21.255 2°47.197 17.3528 4.154392 31.639022 3.143494
2009-06-24 07:55:14 51°21.271 2°47.184 17.3443 4.154392 31.639022 3.143494
2009-06-24 07:55:19 51°21.286 2°47.174 17.342 4.155119 31.649563 3.143494
2009-06-24 07:55:24 51°21.3 2°47.163 17.333 4.155741 31.660475 3.143494
2009-06-24 07:55:30 51°21.316 2°47.15 17.3308 4.156675 31.674662 3.143494
2009-06-24 07:55:34 51°21.327 2°47.14 17.3298 4.157505 31.686722 3.10867
2009-06-24 07:55:39 51°21.341 2°47.128 17.3242 4.15875 31.70482 3.073846
2009-06-24 07:55:44 51°21.355 2°47.116 17.3176 4.15875 31.70482 3.073846
2009-06-24 07:55:50 51°21.372 2°47.1 17.3169 4.15958 31.717517 3.10867
2009-06-24 07:55:54 51°21.383 2°47.09 17.3137 4.160307 31.728709 3.10867
2009-06-24 07:55:59 51°21.396 2°47.076 17.3051 4.161137 31.741416 3.10867
2009-06-24 07:56:04 51°21.41 2°47.063 17.3109 4.161759 31.751106 3.073846
2009-06-24 07:56:10 51°21.425 2°47.044 17.3014 4.162382 31.761426 3.073846
2009-06-24 07:56:15 51°21.438 2°47.029 17.2961 4.162382 31.761426 3.073846
2009-06-24 07:56:20 51°21.45 2°47.013 17.2934 4.162797 31.767472 3.10867
2009-06-24 07:56:24 51°21.46 2°46.999 17.2894 4.163316 31.775658 3.10867
2009-06-24 07:56:29 51°21.473 2°46.983 17.2844 4.163938 31.78473 3.073846
2009-06-24 07:56:35 51°21.487 2°46.961 17.286 4.164561 31.793804 3.073846
2009-06-24 07:56:39 51°21.497 2°46.948 17.2782 4.16508 31.800739 3.073846
2009-06-24 07:56:44 51°21.508 2°46.929 17.2827 4.16508 31.800739 3.073846
2009-06-24 07:56:48 51°21.518 2°46.915 17.2764 4.165806 31.811331 3.039022
2009-06-24 07:56:54 51°21.532 2°46.893 17.2833 4.166636 31.821551 3.039022
2009-06-24 07:57:00 51°21.547 2°46.871 17.269 4.167881 31.83657 3.039022
2009-06-24 07:57:04 51°21.556 2°46.856 17.2678 4.169126 31.850333 3.004198
2009-06-24 07:57:08 51°21.566 2°46.841 17.27 4.170163 31.8617 3.004198
2009-06-24 07:57:14 51°21.58 2°46.819 17.2648 4.170163 31.8617 3.004198
2009-06-24 07:57:19 51°21.592 2°46.8 17.2636 4.170786 31.869531 3.039022
2009-06-24 07:57:24 51°21.604 2°46.782 17.2588 4.171305 31.874585 3.039022
2009-06-24 07:57:28 51°21.613 2°46.767 17.2596 4.172031 31.882671 3.004198
2009-06-24 07:57:34 51°21.627 2°46.745 17.2545 4.173069 31.894045 3.004198
2009-06-24 07:57:39 51°21.638 2°46.725 17.2574 4.173691 31.901881 3.039022
2009-06-24 07:57:44 51°21.65 2°46.707 17.2506 4.173691 31.901881 3.039022
2009-06-24 07:57:50 51°21.663 2°46.685 17.2517 4.174417 31.911235 3.004198
2009-06-24 07:57:54 51°21.672 2°46.67 17.2504 4.175144 31.918695 3.004198
2009-06-24 07:57:59 51°21.684 2°46.653 17.248 4.17587 31.928053 2.969374
2009-06-24 07:58:04 51°21.696 2°46.634 17.2455 4.176596 31.936147 3.004198
2009-06-24 07:58:10 51°21.709 2°46.611 17.2438 4.177323 31.944876 2.969374
2009-06-24 07:58:14 51°21.719 2°46.596 17.2422 4.177323 31.944876 2.969374
2009-06-24 07:58:19 51°21.73 2°46.577 17.2464 4.178153 31.953858 2.969374
2009-06-24 07:58:24 51°21.741 2°46.556 17.2402 4.178879 31.961957 2.969374
2009-06-24 07:58:28 51°21.75 2°46.54 17.2402 4.179398 31.967652 2.969374
2009-06-24 07:58:35 51°21.765 2°46.512 17.2379 4.179917 31.973981 2.93455
2009-06-24 07:58:39 51°21.774 2°46.495 17.2371 4.180435 31.98031 2.93455
2009-06-24 07:58:44 51°21.785 2°46.475 17.2359 4.180435 31.98031 2.93455
2009-06-24 07:58:48 51°21.793 2°46.458 17.2385 4.180954 31.986007 2.93455
2009-06-24 07:58:55 51°21.808 2°46.43 17.235 4.181473 31.99107 2.93455
2009-06-24 07:59:00 51°21.819 2°46.409 17.2344 4.181888 31.995882 2.93455
2009-06-24 07:59:04 51°21.828 2°46.394 17.2354 4.182303 32.000695 2.93455
2009-06-24 07:59:08 51°21.836 2°46.378 17.2355 4.182614 32.005256 2.93455
2009-06-24 07:59:14 51°21.85 2°46.354 17.2331 4.182614 32.005256 2.93455
2009-06-24 07:59:20 51°21.863 2°46.332 17.2338 4.183029 32.010069 2.93455
2009-06-24 07:59:24 51°21.872 2°46.316 17.2311 4.183444 32.014248 2.969374
2009-06-24 07:59:28 51°21.881 2°46.301 17.2299 4.183652 32.01602 2.93455
2009-06-24 07:59:34 51°21.895 2°46.278 17.2361 4.184067 32.0202 2.93455
2009-06-24 07:59:39 51°21.906 2°46.258 17.2256 4.184482 32.024379 2.93455
2009-06-24 07:59:44 51°21.918 2°46.239 17.2252 4.184482 32.024379 2.93455
2009-06-24 07:59:48 51°21.926 2°46.224 17.22 4.185001 32.03008 2.93455
2009-06-24 07:59:54 51°21.94 2°46.201 17.2181 4.185104 32.032237 2.93455
2009-06-24 07:59:59 51°21.951 2°46.182 17.2182 4.185519 32.036417 2.93455
2009-06-24 08:00:04 51°21.963 2°46.163 17.213 4.185727 32.038825 2.93455
2009-06-24 08:00:10 51°21.977 2°46.14 17.2109 4.185934 32.040598 2.93455
2009-06-24 08:00:14 51°21.986 2°46.125 17.2073 4.185934 32.040598 2.93455
2009-06-24 08:00:19 51°21.997 2°46.106 17.2068 4.186349 32.046685 2.93455
2009-06-24 08:00:24 51°22.009 2°46.087 17.2061 4.186868 32.053024 2.93455
2009-06-24 08:00:30 51°22.023 2°46.065 17.2071 4.187283 32.05975 2.93455
2009-06-24 08:00:34 51°22.032 2°46.05 17.2038 4.187698 32.064568 2.93455
2009-06-24 08:00:39 51°22.043 2°46.031 17.203 4.18801 32.069773 2.899726
2009-06-24 08:00:44 51°22.054 2°46.014 17.2068 4.18801 32.069773 2.899726
2009-06-24 08:00:48 51°22.062 2°45.998 17.2066 4.188321 32.074978 2.899726
2009-06-24 08:00:55 51°22.078 2°45.974 17.2024 4.188632 32.080185 2.899726
2009-06-24 08:01:00 51°22.088 2°45.955 17.2036 4.188736 32.082345 2.899726
2009-06-24 08:01:04 51°22.098 2°45.941 17.1942 4.18884 32.083868 2.93455
2009-06-24 08:01:08 51°22.106 2°45.926 17.189 4.189047 32.086279 2.899726
2009-06-24 08:01:14 51°22.12 2°45.906 17.1746 4.189047 32.086279 2.899726
2009-06-24 08:01:20 51°22.132 2°45.882 17.1743 4.189151 32.087803 2.93455
2009-06-24 08:01:24 51°22.141 2°45.869 17.1571 4.189359 32.089577 2.93455
2009-06-24 08:01:28 51°22.15 2°45.854 17.1513 4.189774 32.093762 2.93455
2009-06-24 08:01:34 51°22.164 2°45.833 17.1499 4.190604 32.102133 2.93455
2009-06-24 08:01:40 51°22.176 2°45.81 17.1422 4.19216 32.12054 2.93455
2009-06-24 08:01:44 51°22.185 2°45.796 17.1268 4.19216 32.12054 2.93455
2009-06-24 08:01:48 51°22.194 2°45.781 17.1245 4.194131 32.143142 2.93455
2009-06-24 08:01:54 51°22.207 2°45.759 17.1181 4.195999 32.163589 2.899726
2009-06-24 08:01:59 51°22.218 2°45.742 17.1059 4.198178 32.190544 2.93455
2009-06-24 08:02:04 51°22.229 2°45.723 17.1019 4.199735 32.209624 2.899726
2009-06-24 08:02:10 51°22.242 2°45.702 17.0934 4.200876 32.225158 2.899726
2009-06-24 08:02:14 51°22.25 2°45.687 17.0935 4.200876 32.225158 2.899726
2009-06-24 08:02:19 51°22.262 2°45.669 17.0868 4.202847 32.24909 2.899726
2009-06-24 08:02:24 51°22.272 2°45.65 17.0828 4.204508 32.271009 2.899726
2009-06-24 08:02:30 51°22.286 2°45.63 17.0704 4.206375 32.294718 2.899726
2009-06-24 08:02:34 51°22.294 2°45.614 17.0752 4.207828 32.315526 2.899726
2009-06-24 08:02:39 51°22.305 2°45.597 17.063 4.209177 32.333524 2.899726
2009-06-24 08:02:44 51°22.316 2°45.578 17.0587 4.209177 32.333524 2.899726
2009-06-24 08:02:48 51°22.325 2°45.564 17.0524 4.210111 32.346683 2.899726
2009-06-24 08:02:55 51°22.34 2°45.538 17.0513 4.211045 32.357914 2.899726
2009-06-24 08:02:59 51°22.349 2°45.524 17.0478 4.211979 32.373015 2.899726
2009-06-24 08:03:04 51°22.36 2°45.506 17.0402 4.213432 32.390641 2.899726
2009-06-24 08:03:08 51°22.369 2°45.491 17.0328 4.214573 32.406247 2.864902
2009-06-24 08:03:15 51°22.384 2°45.465 17.0265 4.214573 32.406247 2.864902
2009-06-24 08:03:20 51°22.395 2°45.446 17.0283 4.215507 32.418785 2.899726
2009-06-24 08:03:24 51°22.404 2°45.431 17.0211 4.216545 32.434157 2.864902
2009-06-24 08:03:28 51°22.413 2°45.418 17.0184 4.217271 32.444275 2.864902
2009-06-24 08:03:34 51°22.426 2°45.395 17.0165 4.217997 32.45569 2.864902
2009-06-24 08:03:40 51°22.44 2°45.374 17.0112 4.218931 32.468244 2.864902
2009-06-24 08:03:44 51°22.449 2°45.359 17.0127 4.218931 32.468244 2.864902
2009-06-24 08:03:48 51°22.457 2°45.344 17.0084 4.219969 32.482343 2.864902
2009-06-24 08:03:54 51°22.47 2°45.321 17.0086 4.220488 32.491338 2.864902
2009-06-24 08:04:00 51°22.483 2°45.299 17.0084 4.221111 32.499931 2.864902
2009-06-24 08:04:04 51°22.491 2°45.284 16.9988 4.221733 32.509175 2.864902
2009-06-24 08:04:08 51°22.5 2°45.27 17.002 4.222252 32.516231 2.864902
2009-06-24 08:04:14 51°22.512 2°45.246 16.9982 4.222252 32.516231 2.864902
2009-06-24 08:04:19 51°22.524 2°45.23 16.9879 4.222667 32.523046 2.899726
2009-06-24 08:04:24 51°22.534 2°45.21 16.9903 4.22329 32.530997 2.864902
2009-06-24 08:04:30 51°22.547 2°45.189 16.9769 4.223809 32.537408 2.864902
2009-06-24 08:04:34 51°22.555 2°45.174 16.9784 4.224431 32.546012 2.864902
2009-06-24 08:04:39 51°22.566 2°45.155 16.9724 4.22495 32.553075 2.899726
2009-06-24 08:04:44 51°22.577 2°45.137 16.9803 4.22495 32.553075 2.899726
2009-06-24 08:04:50 51°22.589 2°45.114 16.9677 4.225469 32.558839 2.864902
2009-06-24 08:04:54 51°22.598 2°45.1 16.9663 4.226195 32.56834 2.864902
2009-06-24 08:04:59 51°22.608 2°45.081 16.962 4.226714 32.576708 2.899726
2009-06-24 08:05:04 51°22.618 2°45.063 16.962 4.227752 32.591497 2.899726
2009-06-24 08:05:08 51°22.627 2°45.048 16.9592 4.228167 32.598326 2.864902
2009-06-24 08:05:15 51°22.641 2°45.023 16.9541 4.228167 32.598326 2.864902
2009-06-24 08:05:19 51°22.65 2°45.008 16.9542 4.228686 32.605399 2.864902
2009-06-24 08:05:24 51°22.661 2°44.99 16.9547 4.228997 32.610686 2.864902
2009-06-24 08:05:28 51°22.669 2°44.975 16.9482 4.229516 32.618413 2.864902
2009-06-24 08:05:35 51°22.685 2°44.951 16.9442 4.230035 32.625489 2.864902
2009-06-24 08:05:40 51°22.695 2°44.931 16.9419 4.23045 32.631673 2.864902
2009-06-24 08:05:44 51°22.705 2°44.918 16.9311 4.23045 32.631673 2.864902
2009-06-24 08:05:48 51°22.714 2°44.903 16.9339 4.230969 32.638752 2.899726
2009-06-24 08:05:54 51°22.728 2°44.882 16.9274 4.231488 32.647138 2.899726
2009-06-24 08:06:00 51°22.741 2°44.86 16.9314 4.231799 32.651126 2.899726
2009-06-24 08:06:04 51°22.75 2°44.845 16.9221 4.232318 32.658861 2.899726
2009-06-24 08:06:08 51°22.759 2°44.832 16.9245 4.233044 32.667734 2.864902
2009-06-24 08:06:14 51°22.772 2°44.809 16.9236 4.233044 32.667734 2.864902
2009-06-24 08:06:19 51°22.783 2°44.791 16.9144 4.233667 32.675714 2.864902
2009-06-24 08:06:24 51°22.794 2°44.772 16.9103 4.234186 32.684763 2.864902
2009-06-24 08:06:28 51°22.803 2°44.757 16.9074 4.234912 32.693641 2.864902
2009-06-24 08:06:34 51°22.816 2°44.735 16.9065 4.235639 32.703175 2.899726
2009-06-24 08:06:39 51°22.827 2°44.716 16.9021 4.236261 32.711162 2.899726
2009-06-24 08:06:44 51°22.839 2°44.697 16.9026 4.236261 32.711162 2.899726
2009-06-24 08:06:50 51°22.852 2°44.675 16.9015 4.236573 32.715156 2.864902
2009-06-24 08:06:54 51°22.861 2°44.66 16.8953 4.237403 32.72559 2.864902
2009-06-24 08:06:59 51°22.872 2°44.64 16.8915 4.238233 32.737337 2.899726
2009-06-24 08:07:04 51°22.884 2°44.622 16.888 4.238752 32.744435 2.899726
2009-06-24 08:07:10 51°22.897 2°44.599 16.8849 4.239271 32.752846 2.899726
2009-06-24 08:07:14 51°22.906 2°44.584 16.8793 4.239271 32.752846 2.899726
2009-06-24 08:07:19 51°22.917 2°44.565 16.8789 4.239789 32.759947 2.899726
2009-06-24 08:07:24 51°22.929 2°44.545 16.8792 4.240308 32.766394 2.899726
2009-06-24 08:07:28 51°22.938 2°44.53 16.8773 4.241035 32.775945 2.864902
2009-06-24 08:07:35 51°22.953 2°44.503 16.8754 4.241554 32.782393 2.864902
2009-06-24 08:07:40 51°22.965 2°44.484 16.8766 4.242176 32.792366 2.899726